Wetterdaten: Freitag, 30.12.2022
Datum Zeit Temp. Aussen Temp. o. S. Temp +5cm Feuchte Auss Luftdruck Regen Sonnenschein Regendauer Solar Windben Empfang
30.12.2022 00:00 7,3 C 6,1 C 2,8 C 85 % 1010,3 hPa 0,0 l/m 0 min 0 min 0 W/m 16,1 km/h (3 Bft) 93,62 %
30.12.2022 00:02 7,3 C 6,1 C 2,8 C 85 % 1010,5 hPa 0,0 l/m 0 min 0 min 0 W/m 16,1 km/h (3 Bft) 100,00 %
30.12.2022 00:04 7,3 C 6,1 C 2,8 C 85 % 1010,4 hPa 0,0 l/m 0 min 0 min 0 W/m 12,9 km/h (3 Bft) 100,00 %
30.12.2022 00:08 7,3 C 6,1 C 2,8 C 86 % 1010,5 hPa 0,0 l/m 0 min 0 min 0 W/m 12,9 km/h (3 Bft) 100,00 %
30.12.2022 00:10 7,2 C 6,1 C 2,8 C 86 % 1010,6 hPa 0,0 l/m 0 min 0 min 0 W/m 9,7 km/h (2 Bft) 100,00 %
30.12.2022 00:12 7,3 C 6,1 C 2,8 C 86 % 1010,6 hPa 0,0 l/m 0 min 0 min 0 W/m 19,3 km/h (3 Bft) 100,00 %
30.12.2022 00:14 7,3 C 6,7 C 2,8 C 86 % 1010,8 hPa 0,0 l/m 0 min 0 min 0 W/m 29,0 km/h (5 Bft) 95,74 %
30.12.2022 00:16 7,2 C 6,1 C 2,8 C 86 % 1010,8 hPa 0,0 l/m 0 min 0 min 0 W/m 12,9 km/h (3 Bft) 100,00 %
30.12.2022 00:18 7,2 C 6,1 C 2,8 C 86 % 1010,8 hPa 0,0 l/m 0 min 0 min 0 W/m 12,9 km/h (3 Bft) 97,87 %
30.12.2022 00:20 7,2 C 6,1 C 2,8 C 86 % 1010,8 hPa 0,0 l/m 0 min 0 min 0 W/m 16,1 km/h (3 Bft) 100,00 %
30.12.2022 00:22 7,2 C 6,1 C 2,8 C 86 % 1010,8 hPa 0,0 l/m 0 min 0 min 0 W/m 16,1 km/h (3 Bft) 100,00 %
30.12.2022 00:24 7,2 C 6,1 C 2,8 C 86 % 1010,8 hPa 0,0 l/m 0 min 0 min 0 W/m 12,9 km/h (3 Bft) 97,87 %
30.12.2022 00:26 7,2 C 6,1 C 2,8 C 86 % 1010,8 hPa 0,0 l/m 0 min 0 min 0 W/m 12,9 km/h (3 Bft) 100,00 %
30.12.2022 00:28 7,2 C 6,1 C 2,8 C 86 % 1010,9 hPa 0,0 l/m 0 min 0 min 0 W/m 16,1 km/h (3 Bft) 100,00 %
30.12.2022 00:30 7,2 C 6,1 C 2,8 C 86 % 1010,9 hPa 0,0 l/m 0 min 0 min 0 W/m 9,7 km/h (2 Bft) 100,00 %
30.12.2022 00:32 7,1 C 6,1 C 2,8 C 86 % 1011,0 hPa 0,0 l/m 0 min 0 min 0 W/m 32,2 km/h (5 Bft) 97,87 %
30.12.2022 00:34 7,1 C 6,1 C 2,8 C 86 % 1011,1 hPa 0,0 l/m 0 min 0 min 0 W/m 19,3 km/h (3 Bft) 97,87 %
30.12.2022 00:36 7,2 C 6,1 C 2,8 C 86 % 1011,2 hPa 0,0 l/m 0 min 0 min 0 W/m 29,0 km/h (5 Bft) 100,00 %
30.12.2022 00:38 7,2 C 6,1 C 2,8 C 86 % 1011,2 hPa 0,0 l/m 0 min 0 min 0 W/m 29,0 km/h (5 Bft) 100,00 %
30.12.2022 00:40 7,2 C 6,1 C 2,8 C 86 % 1011,2 hPa 0,0 l/m 0 min 0 min 0 W/m 19,3 km/h (3 Bft) 100,00 %
30.12.2022 00:42 7,2 C 6,1 C 2,8 C 86 % 1011,2 hPa 0,0 l/m 0 min 0 min 0 W/m 19,3 km/h (3 Bft) 95,65 %
30.12.2022 00:44 7,2 C 6,1 C 2,8 C 86 % 1011,2 hPa 0,0 l/m 0 min 0 min 0 W/m 19,3 km/h (3 Bft) 97,87 %
30.12.2022 00:46 7,2 C 6,1 C 2,8 C 86 % 1011,3 hPa 0,0 l/m 0 min 0 min 0 W/m 16,1 km/h (3 Bft) 95,74 %
30.12.2022 00:48 7,2 C 6,1 C 2,8 C 86 % 1011,3 hPa 0,0 l/m 0 min 0 min 0 W/m 16,1 km/h (3 Bft) 97,87 %
30.12.2022 00:50 7,2 C 6,1 C 2,8 C 86 % 1011,4 hPa 0,0 l/m 0 min 0 min 0 W/m 19,3 km/h (3 Bft) 97,87 %
30.12.2022 00:52 7,2 C 6,1 C 2,8 C 86 % 1011,4 hPa 0,0 l/m 0 min 0 min 0 W/m 9,7 km/h (2 Bft) 97,87 %
30.12.2022 00:54 7,1 C 6,1 C 2,8 C 86 % 1011,5 hPa 0,0 l/m 0 min 0 min 0 W/m 29,0 km/h (5 Bft) 97,83 %
30.12.2022 00:56 7,1 C 6,1 C 2,8 C 86 % 1011,5 hPa 0,0 l/m 0 min 0 min 0 W/m 29,0 km/h (5 Bft) 97,87 %
30.12.2022 00:58 7,2 C 6,1 C 2,8 C 86 % 1011,6 hPa 0,0 l/m 0 min 0 min 0 W/m 19,3 km/h (3 Bft) 97,87 %
30.12.2022 01:00 7,2 C 6,1 C 2,8 C 86 % 1011,5 hPa 0,0 l/m 0 min 0 min 0 W/m 19,3 km/h (3 Bft) 95,74 %
30.12.2022 01:02 7,1 C 6,1 C 2,8 C 86 % 1011,6 hPa 0,0 l/m 0 min 0 min 0 W/m 25,7 km/h (4 Bft) 97,87 %
30.12.2022 01:04 7,1 C 6,1 C 2,8 C 86 % 1011,5 hPa 0,0 l/m 0 min 0 min 0 W/m 19,3 km/h (3 Bft) 97,87 %
30.12.2022 01:06 7,1 C 6,1 C 2,8 C 86 % 1011,5 hPa 0,0 l/m 0 min 0 min 0 W/m 29,0 km/h (5 Bft) 94,83 %
30.12.2022 01:08 7,1 C 6,1 C 2,8 C 86 % 1011,5 hPa 0,0 l/m 0 min 0 min 0 W/m 16,1 km/h (3 Bft) 100,00 %
30.12.2022 01:10 7,1 C 6,1 C 2,8 C 86 % 1011,5 hPa 0,0 l/m 0 min 0 min 0 W/m 16,1 km/h (3 Bft) 97,87 %
30.12.2022 01:12 7,1 C 6,1 C 2,8 C 86 % 1011,5 hPa 0,0 l/m 0 min 0 min 0 W/m 19,3 km/h (3 Bft) 97,87 %
30.12.2022 01:14 7,1 C 6,1 C 2,8 C 86 % 1011,5 hPa 0,0 l/m 0 min 0 min 0 W/m 35,4 km/h (5 Bft) 95,74 %
30.12.2022 01:16 7,1 C 6,1 C 2,8 C 86 % 1011,6 hPa 0,0 l/m 0 min 0 min 0 W/m 19,3 km/h (3 Bft) 97,87 %
30.12.2022 01:18 7,1 C 6,1 C 2,8 C 86 % 1011,6 hPa 0,0 l/m 0 min 0 min 0 W/m 16,1 km/h (3 Bft) 95,74 %
30.12.2022 01:20 7,0 C 6,1 C 2,8 C 86 % 1011,6 hPa 0,0 l/m 0 min 0 min 0 W/m 16,1 km/h (3 Bft) 97,83 %
30.12.2022 01:22 7,0 C 6,1 C 2,8 C 86 % 1011,6 hPa 0,0 l/m 0 min 0 min 0 W/m 19,3 km/h (3 Bft) 93,62 %
30.12.2022 01:24 7,0 C 6,1 C 2,8 C 86 % 1011,7 hPa 0,0 l/m 0 min 0 min 0 W/m 12,9 km/h (3 Bft) 100,00 %
30.12.2022 01:26 6,9 C 6,1 C 2,8 C 86 % 1011,6 hPa 0,0 l/m 0 min 0 min 0 W/m 22,5 km/h (4 Bft) 97,87 %
30.12.2022 01:28 6,9 C 6,1 C 2,8 C 86 % 1011,6 hPa 0,0 l/m 0 min 0 min 0 W/m 16,1 km/h (3 Bft) 97,87 %
30.12.2022 01:30 6,9 C 6,1 C 2,8 C 86 % 1011,7 hPa 0,0 l/m 0 min 0 min 0 W/m 25,7 km/h (4 Bft) 97,87 %
30.12.2022 01:32 6,9 C 6,1 C 2,8 C 86 % 1011,7 hPa 0,0 l/m 0 min 0 min 0 W/m 19,3 km/h (3 Bft) 97,87 %
30.12.2022 01:34 6,9 C 6,1 C 2,8 C 86 % 1011,7 hPa 0,0 l/m 0 min 0 min 0 W/m 19,3 km/h (3 Bft) 97,83 %
30.12.2022 01:36 6,9 C 6,1 C 2,8 C 86 % 1011,6 hPa 0,0 l/m 0 min 0 min 0 W/m 19,3 km/h (3 Bft) 97,87 %
30.12.2022 01:38 6,9 C 6,1 C 2,8 C 86 % 1011,6 hPa 0,0 l/m 0 min 0 min 0 W/m 19,3 km/h (3 Bft) 97,87 %
30.12.2022 01:40 6,9 C 6,1 C 2,8 C 86 % 1011,6 hPa 0,0 l/m 0 min 0 min 0 W/m 22,5 km/h (4 Bft) 97,87 %
30.12.2022 01:42 6,9 C 6,1 C 2,8 C 86 % 1011,6 hPa 0,0 l/m 0 min 0 min 0 W/m 19,3 km/h (3 Bft) 95,74 %
30.12.2022 01:44 6,9 C 6,1 C 2,8 C 86 % 1011,6 hPa 0,0 l/m 0 min 0 min 0 W/m 22,5 km/h (4 Bft) 97,87 %
30.12.2022 01:46 6,9 C 6,1 C 2,8 C 86 % 1011,6 hPa 0,0 l/m 0 min 0 min 0 W/m 19,3 km/h (3 Bft) 97,83 %
30.12.2022 01:48 6,9 C 6,1 C 2,8 C 86 % 1011,6 hPa 0,0 l/m 0 min 0 min 0 W/m 19,3 km/h (3 Bft) 97,87 %
30.12.2022 01:50 6,9 C 6,1 C 2,8 C 86 % 1011,6 hPa 0,0 l/m 0 min 0 min 0 W/m 22,5 km/h (4 Bft) 97,87 %
30.12.2022 01:52 6,9 C 6,1 C 2,8 C 86 % 1011,6 hPa 0,0 l/m 0 min 0 min 0 W/m 19,3 km/h (3 Bft) 95,74 %
30.12.2022 01:54 6,8 C 6,1 C 2,8 C 86 % 1011,7 hPa 0,0 l/m 0 min 0 min 0 W/m 19,3 km/h (3 Bft) 95,74 %
30.12.2022 01:56 6,8 C 6,1 C 2,8 C 86 % 1011,7 hPa 0,0 l/m 0 min 0 min 0 W/m 19,3 km/h (3 Bft) 96,00 %
30.12.2022 01:58 6,8 C 6,1 C 2,8 C 86 % 1011,7 hPa 0,0 l/m 0 min 0 min 0 W/m 12,9 km/h (3 Bft) 95,65 %
30.12.2022 02:00 6,8 C 6,1 C 2,8 C 86 % 1011,7 hPa 0,0 l/m 0 min 0 min 0 W/m 16,1 km/h (3 Bft) 98,00 %
30.12.2022 02:02 6,8 C 6,1 C 2,8 C 86 % 1011,8 hPa 0,0 l/m 0 min 0 min 0 W/m 22,5 km/h (4 Bft) 97,87 %
30.12.2022 02:04 6,8 C 6,1 C 2,8 C 86 % 1011,8 hPa 0,0 l/m 0 min 0 min 0 W/m 19,3 km/h (3 Bft) 97,87 %
30.12.2022 02:06 6,8 C 6,1 C 2,8 C 86 % 1011,8 hPa 0,0 l/m 0 min 0 min 0 W/m 22,5 km/h (4 Bft) 97,96 %
30.12.2022 02:08 6,8 C 6,1 C 2,8 C 86 % 1011,8 hPa 0,0 l/m 0 min 0 min 0 W/m 16,1 km/h (3 Bft) 97,14 %
30.12.2022 02:10 6,8 C 6,1 C 2,8 C 86 % 1011,8 hPa 0,0 l/m 0 min 0 min 0 W/m 25,7 km/h (4 Bft) 97,87 %
30.12.2022 02:12 6,8 C 6,1 C 2,8 C 86 % 1011,8 hPa 0,0 l/m 0 min 0 min 0 W/m 12,9 km/h (3 Bft) 97,83 %
30.12.2022 02:14 6,7 C 5,6 C 2,8 C 86 % 1011,9 hPa 0,0 l/m 0 min 0 min 0 W/m 16,1 km/h (3 Bft) 94,44 %
30.12.2022 02:16 6,7 C 5,6 C 2,8 C 86 % 1011,9 hPa 0,0 l/m 0 min 0 min 0 W/m 12,9 km/h (3 Bft) 97,87 %
30.12.2022 02:18 6,7 C 5,6 C 2,2 C 86 % 1012,0 hPa 0,0 l/m 0 min 0 min 0 W/m 12,9 km/h (3 Bft) 98,00 %
30.12.2022 02:20 6,7 C 5,6 C 2,2 C 86 % 1011,9 hPa 0,0 l/m 0 min 0 min 0 W/m 25,7 km/h (4 Bft) 97,30 %
30.12.2022 02:22 6,7 C 6,1 C 2,8 C 86 % 1012,0 hPa 0,0 l/m 0 min 0 min 0 W/m 16,1 km/h (3 Bft) 97,87 %
30.12.2022 02:24 6,7 C 6,1 C 2,8 C 86 % 1011,9 hPa 0,0 l/m 0 min 0 min 0 W/m 16,1 km/h (3 Bft) 94,34 %
30.12.2022 02:26 6,7 C 5,6 C 2,2 C 86 % 1011,9 hPa 0,0 l/m 0 min 0 min 0 W/m 19,3 km/h (3 Bft) 98,00 %
30.12.2022 02:28 6,7 C 5,6 C 2,2 C 86 % 1012,0 hPa 0,0 l/m 0 min 0 min 0 W/m 19,3 km/h (3 Bft) 97,30 %
30.12.2022 02:30 6,7 C 5,6 C 2,2 C 86 % 1012,0 hPa 0,0 l/m 0 min 0 min 0 W/m 16,1 km/h (3 Bft) 97,87 %
30.12.2022 02:32 6,6 C 5,6 C 2,2 C 86 % 1012,0 hPa 0,0 l/m 0 min 0 min 0 W/m 22,5 km/h (4 Bft) 93,62 %
30.12.2022 02:34 6,6 C 5,6 C 2,2 C 86 % 1012,0 hPa 0,0 l/m 0 min 0 min 0 W/m 22,5 km/h (4 Bft) 97,87 %
30.12.2022 02:36 6,6 C 5,6 C 2,2 C 86 % 1012,0 hPa 0,0 l/m 0 min 0 min 0 W/m 12,9 km/h (3 Bft) 98,15 %
30.12.2022 02:38 6,6 C 5,6 C 2,2 C 86 % 1012,0 hPa 0,0 l/m 0 min 0 min 0 W/m 16,1 km/h (3 Bft) 97,83 %
30.12.2022 02:40 6,6 C 5,6 C 2,2 C 86 % 1012,1 hPa 0,0 l/m 0 min 0 min 0 W/m 12,9 km/h (3 Bft) 98,00 %
30.12.2022 02:42 6,5 C 5,6 C 2,2 C 86 % 1012,1 hPa 0,0 l/m 0 min 0 min 0 W/m 22,5 km/h (4 Bft) 100,00 %
30.12.2022 02:44 6,5 C 5,6 C 2,2 C 87 % 1012,1 hPa 0,0 l/m 0 min 0 min 0 W/m 12,9 km/h (3 Bft) 100,00 %
30.12.2022 02:46 6,5 C 5,6 C 2,2 C 87 % 1012,1 hPa 0,0 l/m 0 min 0 min 0 W/m 12,9 km/h (3 Bft) 100,00 %
30.12.2022 02:48 6,5 C 5,6 C 2,2 C 87 % 1012,2 hPa 0,0 l/m 0 min 0 min 0 W/m 12,9 km/h (3 Bft) 97,87 %
30.12.2022 02:50 6,5 C 5,6 C 2,2 C 87 % 1012,2 hPa 0,0 l/m 0 min 0 min 0 W/m 16,1 km/h (3 Bft) 96,23 %
30.12.2022 02:52 6,5 C 5,6 C 2,2 C 87 % 1012,2 hPa 0,0 l/m 0 min 0 min 0 W/m 16,1 km/h (3 Bft) 97,87 %
30.12.2022 02:54 6,4 C 5,6 C 2,2 C 87 % 1012,3 hPa 0,0 l/m 0 min 0 min 0 W/m 12,9 km/h (3 Bft) 97,87 %
30.12.2022 02:56 6,4 C 5,6 C 2,2 C 87 % 1012,3 hPa 0,0 l/m 0 min 0 min 0 W/m 9,7 km/h (2 Bft) 97,87 %
30.12.2022 02:58 6,4 C 5,6 C 2,2 C 87 % 1012,2 hPa 0,0 l/m 0 min 0 min 0 W/m 19,3 km/h (3 Bft) 97,87 %
30.12.2022 03:00 6,4 C 5,6 C 2,2 C 87 % 1012,3 hPa 0,0 l/m 0 min 0 min 0 W/m 16,1 km/h (3 Bft) 100,00 %
30.12.2022 03:02 6,4 C 5,6 C 2,2 C 87 % 1012,2 hPa 0,0 l/m 0 min 0 min 0 W/m 22,5 km/h (4 Bft) 97,87 %
30.12.2022 03:04 6,4 C 5,6 C 2,2 C 87 % 1012,2 hPa 0,0 l/m 0 min 0 min 0 W/m 19,3 km/h (3 Bft) 97,83 %
30.12.2022 03:06 6,3 C 5,6 C 2,2 C 87 % 1012,1 hPa 0,0 l/m 0 min 0 min 0 W/m 19,3 km/h (3 Bft) 100,00 %
30.12.2022 03:08 6,3 C 5,6 C 2,2 C 87 % 1012,1 hPa 0,0 l/m 0 min 0 min 0 W/m 9,7 km/h (2 Bft) 97,87 %
30.12.2022 03:10 6,3 C 5,0 C 2,2 C 87 % 1012,2 hPa 0,0 l/m 0 min 0 min 0 W/m 6,4 km/h (2 Bft) 98,00 %
30.12.2022 03:12 6,3 C 5,0 C 2,2 C 87 % 1012,2 hPa 0,0 l/m 0 min 0 min 0 W/m 6,4 km/h (2 Bft) 97,87 %
30.12.2022 03:14 6,2 C 5,0 C 2,2 C 87 % 1012,2 hPa 0,0 l/m 0 min 0 min 0 W/m 6,4 km/h (2 Bft) 95,65 %
30.12.2022 03:16 6,2 C 5,0 C 2,2 C 87 % 1012,2 hPa 0,0 l/m 0 min 0 min 0 W/m 12,9 km/h (3 Bft) 91,49 %
30.12.2022 03:18 6,2 C 5,0 C 2,2 C 87 % 1012,2 hPa 0,0 l/m 0 min 0 min 0 W/m 6,4 km/h (2 Bft) 95,74 %
30.12.2022 03:20 6,1 C 5,0 C 1,7 C 87 % 1012,2 hPa 0,0 l/m 0 min 0 min 0 W/m 6,4 km/h (2 Bft) 95,74 %
30.12.2022 03:22 6,1 C 5,0 C 1,7 C 87 % 1012,2 hPa 0,0 l/m 0 min 0 min 0 W/m 9,7 km/h (2 Bft) 93,62 %
30.12.2022 03:24 6,1 C 5,0 C 1,7 C 87 % 1012,3 hPa 0,0 l/m 0 min 0 min 0 W/m 12,9 km/h (3 Bft) 93,62 %
30.12.2022 03:26 6,1 C 5,0 C 1,7 C 87 % 1012,3 hPa 0,0 l/m 0 min 0 min 0 W/m 16,1 km/h (3 Bft) 95,74 %
30.12.2022 03:28 6,0 C 5,0 C 1,7 C 87 % 1012,3 hPa 0,0 l/m 0 min 0 min 0 W/m 9,7 km/h (2 Bft) 95,65 %
30.12.2022 03:30 6,0 C 5,0 C 1,7 C 88 % 1012,3 hPa 0,0 l/m 0 min 0 min 0 W/m 9,7 km/h (2 Bft) 95,74 %
30.12.2022 03:32 5,9 C 5,0 C 1,7 C 88 % 1012,3 hPa 0,0 l/m 0 min 0 min 0 W/m 6,4 km/h (2 Bft) 95,74 %
30.12.2022 03:34 5,9 C 5,0 C 1,7 C 88 % 1012,4 hPa 0,0 l/m 0 min 0 min 0 W/m 12,9 km/h (3 Bft) 95,74 %
30.12.2022 03:36 5,9 C 5,0 C 1,7 C 88 % 1012,4 hPa 0,0 l/m 0 min 0 min 0 W/m 6,4 km/h (2 Bft) 95,74 %
30.12.2022 03:38 5,9 C 5,0 C 1,7 C 88 % 1012,4 hPa 0,0 l/m 0 min 0 min 0 W/m 9,7 km/h (2 Bft) 97,87 %
30.12.2022 03:40 5,9 C 5,0 C 1,7 C 88 % 1012,4 hPa 0,0 l/m 0 min 0 min 0 W/m 12,9 km/h (3 Bft) 95,65 %
30.12.2022 03:42 5,8 C 5,0 C 1,7 C 88 % 1012,4 hPa 0,0 l/m 0 min 0 min 0 W/m 16,1 km/h (3 Bft) 95,74 %
30.12.2022 03:44 5,8 C 5,0 C 1,7 C 88 % 1012,4 hPa 0,0 l/m 0 min 0 min 0 W/m 16,1 km/h (3 Bft) 95,74 %
30.12.2022 03:46 5,8 C 5,0 C 1,7 C 88 % 1012,4 hPa 0,0 l/m 0 min 0 min 0 W/m 16,1 km/h (3 Bft) 95,74 %
30.12.2022 03:48 5,8 C 5,0 C 1,7 C 88 % 1012,4 hPa 0,0 l/m 0 min 0 min 0 W/m 9,7 km/h (2 Bft) 97,87 %
30.12.2022 03:50 5,8 C 5,0 C 1,7 C 88 % 1012,4 hPa 0,0 l/m 0 min 0 min 0 W/m 12,9 km/h (3 Bft) 100,00 %
30.12.2022 03:52 5,8 C 5,0 C 1,7 C 88 % 1012,3 hPa 0,0 l/m 0 min 0 min 0 W/m 12,9 km/h (3 Bft) 100,00 %
30.12.2022 03:54 5,8 C 5,0 C 1,7 C 88 % 1012,3 hPa 0,0 l/m 0 min 0 min 0 W/m 6,4 km/h (2 Bft) 95,74 %
30.12.2022 03:56 5,8 C 5,0 C 1,7 C 88 % 1012,2 hPa 0,0 l/m 0 min 0 min 0 W/m 12,9 km/h (3 Bft) 100,00 %
30.12.2022 03:58 5,8 C 5,0 C 1,7 C 88 % 1012,3 hPa 0,0 l/m 0 min 0 min 0 W/m 6,4 km/h (2 Bft) 100,00 %
30.12.2022 04:00 5,7 C 4,4 C 1,7 C 88 % 1012,3 hPa 0,0 l/m 0 min 0 min 0 W/m 9,7 km/h (2 Bft) 100,00 %
30.12.2022 04:02 5,7 C 4,4 C 1,7 C 88 % 1012,3 hPa 0,0 l/m 0 min 0 min 0 W/m 12,9 km/h (3 Bft) 100,00 %
30.12.2022 04:04 5,7 C 4,4 C 1,7 C 88 % 1012,2 hPa 0,0 l/m 0 min 0 min 0 W/m 12,9 km/h (3 Bft) 100,00 %
30.12.2022 04:06 5,7 C 4,4 C 1,7 C 88 % 1012,3 hPa 0,0 l/m 0 min 0 min 0 W/m 12,9 km/h (3 Bft) 96,55 %
30.12.2022 04:08 5,7 C 4,4 C 1,7 C 88 % 1012,3 hPa 0,0 l/m 0 min 0 min 0 W/m 6,4 km/h (2 Bft) 100,00 %
30.12.2022 04:10 5,6 C 4,4 C 1,7 C 88 % 1012,2 hPa 0,0 l/m 0 min 0 min 0 W/m 12,9 km/h (3 Bft) 100,00 %
30.12.2022 04:12 5,6 C 4,4 C 1,7 C 88 % 1012,3 hPa 0,0 l/m 0 min 0 min 0 W/m 6,4 km/h (2 Bft) 100,00 %
30.12.2022 04:14 5,6 C 4,4 C 1,7 C 88 % 1012,2 hPa 0,0 l/m 0 min 0 min 0 W/m 12,9 km/h (3 Bft) 100,00 %
30.12.2022 04:16 5,5 C 4,4 C 1,7 C 89 % 1012,1 hPa 0,0 l/m 0 min 0 min 0 W/m 6,4 km/h (2 Bft) 97,14 %
30.12.2022 04:18 5,5 C 4,4 C 1,7 C 89 % 1012,1 hPa 0,0 l/m 0 min 0 min 0 W/m 9,7 km/h (2 Bft) 100,00 %
30.12.2022 04:20 5,5 C 4,4 C 1,1 C 89 % 1012,1 hPa 0,0 l/m 0 min 0 min 0 W/m 9,7 km/h (2 Bft) 100,00 %
30.12.2022 04:22 5,4 C 4,4 C 1,7 C 89 % 1012,1 hPa 0,0 l/m 0 min 0 min 0 W/m 16,1 km/h (3 Bft) 95,65 %
30.12.2022 04:24 5,4 C 4,4 C 1,7 C 89 % 1012,0 hPa 0,0 l/m 0 min 0 min 0 W/m 12,9 km/h (3 Bft) 100,00 %
30.12.2022 04:26 5,4 C 4,4 C 1,7 C 89 % 1012,0 hPa 0,0 l/m 0 min 0 min 0 W/m 6,4 km/h (2 Bft) 100,00 %
30.12.2022 04:28 5,4 C 4,4 C 1,7 C 89 % 1011,9 hPa 0,0 l/m 0 min 0 min 0 W/m 9,7 km/h (2 Bft) 57,45 %
30.12.2022 04:30 5,4 C 4,4 C 1,7 C 89 % 1011,9 hPa 0,0 l/m 0 min 0 min 0 W/m 12,9 km/h (3 Bft) 100,00 %
30.12.2022 04:32 5,4 C 4,4 C 1,7 C 89 % 1011,9 hPa 0,0 l/m 0 min 0 min 0 W/m 12,9 km/h (3 Bft) 100,00 %
30.12.2022 04:34 5,4 C 4,4 C 1,7 C 89 % 1011,8 hPa 0,0 l/m 0 min 0 min 0 W/m 12,9 km/h (3 Bft) 100,00 %
30.12.2022 04:36 5,4 C 4,4 C 1,7 C 89 % 1011,8 hPa 0,0 l/m 0 min 0 min 0 W/m 16,1 km/h (3 Bft) 100,00 %
30.12.2022 04:38 5,4 C 4,4 C 1,7 C 90 % 1011,8 hPa 0,0 l/m 0 min 0 min 0 W/m 12,9 km/h (3 Bft) 100,00 %
30.12.2022 04:40 5,4 C 4,4 C 1,7 C 90 % 1011,8 hPa 0,0 l/m 0 min 0 min 0 W/m 12,9 km/h (3 Bft) 100,00 %
30.12.2022 04:42 5,5 C 4,4 C 1,7 C 90 % 1011,8 hPa 0,0 l/m 0 min 0 min 0 W/m 16,1 km/h (3 Bft) 100,00 %
30.12.2022 04:44 5,4 C 4,4 C 1,7 C 90 % 1011,8 hPa 0,0 l/m 0 min 0 min 0 W/m 12,9 km/h (3 Bft) 100,00 %
30.12.2022 04:46 5,5 C 4,4 C 1,7 C 90 % 1011,8 hPa 0,0 l/m 0 min 0 min 0 W/m 12,9 km/h (3 Bft) 100,00 %
30.12.2022 04:48 5,5 C 4,4 C 1,7 C 90 % 1011,9 hPa 0,0 l/m 0 min 0 min 0 W/m 25,7 km/h (4 Bft) 100,00 %
30.12.2022 04:50 5,5 C 4,4 C 1,7 C 90 % 1011,8 hPa 0,0 l/m 0 min 0 min 0 W/m 12,9 km/h (3 Bft) 100,00 %
30.12.2022 04:52 5,5 C 4,4 C 1,7 C 90 % 1011,7 hPa 0,0 l/m 0 min 0 min 0 W/m 12,9 km/h (3 Bft) 100,00 %
30.12.2022 04:54 5,5 C 4,4 C 1,7 C 90 % 1011,6 hPa 0,0 l/m 0 min 0 min 0 W/m 6,4 km/h (2 Bft) 97,87 %
30.12.2022 04:56 5,5 C 4,4 C 1,7 C 90 % 1011,7 hPa 0,0 l/m 0 min 0 min 0 W/m 12,9 km/h (3 Bft) 95,74 %
30.12.2022 04:58 5,4 C 4,4 C 1,7 C 90 % 1011,7 hPa 0,0 l/m 0 min 0 min 0 W/m 16,1 km/h (3 Bft) 97,87 %
30.12.2022 05:00 5,4 C 4,4 C 1,7 C 90 % 1011,7 hPa 0,0 l/m 0 min 0 min 0 W/m 19,3 km/h (3 Bft) 97,83 %
30.12.2022 05:02 5,4 C 4,4 C 1,7 C 90 % 1011,8 hPa 0,0 l/m 0 min 0 min 0 W/m 12,9 km/h (3 Bft) 97,87 %
30.12.2022 05:04 5,4 C 4,4 C 1,7 C 90 % 1011,7 hPa 0,0 l/m 0 min 0 min 0 W/m 12,9 km/h (3 Bft) 95,74 %
30.12.2022 05:06 5,4 C 4,4 C 1,7 C 90 % 1011,7 hPa 0,0 l/m 0 min 0 min 0 W/m 19,3 km/h (3 Bft) 95,74 %
30.12.2022 05:08 5,4 C 4,4 C 1,7 C 90 % 1011,8 hPa 0,0 l/m 0 min 0 min 0 W/m 16,1 km/h (3 Bft) 93,62 %
30.12.2022 05:10 5,4 C 4,4 C 1,7 C 90 % 1011,7 hPa 0,0 l/m 0 min 0 min 0 W/m 16,1 km/h (3 Bft) 93,62 %
30.12.2022 05:12 5,4 C 4,4 C 1,7 C 90 % 1011,7 hPa 0,0 l/m 0 min 0 min 0 W/m 19,3 km/h (3 Bft) 95,74 %
30.12.2022 05:14 5,4 C 4,4 C 1,7 C 90 % 1011,7 hPa 0,0 l/m 0 min 0 min 0 W/m 12,9 km/h (3 Bft) 95,65 %
30.12.2022 05:16 5,4 C 4,4 C 1,7 C 90 % 1011,8 hPa 0,0 l/m 0 min 0 min 0 W/m 12,9 km/h (3 Bft) 93,62 %
30.12.2022 05:18 5,4 C 4,4 C 1,7 C 90 % 1011,8 hPa 0,0 l/m 0 min 0 min 0 W/m 12,9 km/h (3 Bft) 93,62 %
30.12.2022 05:20 5,4 C 4,4 C 1,7 C 90 % 1011,8 hPa 0,0 l/m 0 min 0 min 0 W/m 12,9 km/h (3 Bft) 95,74 %
30.12.2022 05:22 5,4 C 4,4 C 1,7 C 90 % 1011,6 hPa 0,0 l/m 0 min 0 min 0 W/m 9,7 km/h (2 Bft) 93,62 %
30.12.2022 05:24 5,4 C 4,4 C 1,7 C 90 % 1011,6 hPa 0,0 l/m 0 min 0 min 0 W/m 6,4 km/h (2 Bft) 95,74 %
30.12.2022 05:26 5,4 C 4,4 C 1,7 C 90 % 1011,6 hPa 0,0 l/m 0 min 0 min 0 W/m 12,9 km/h (3 Bft) 91,30 %
30.12.2022 05:28 5,4 C 4,4 C 1,7 C 90 % 1011,6 hPa 0,0 l/m 0 min 0 min 0 W/m 9,7 km/h (2 Bft) 95,74 %
30.12.2022 05:30 5,4 C 4,4 C 1,7 C 90 % 1011,6 hPa 0,0 l/m 0 min 0 min 0 W/m 6,4 km/h (2 Bft) 95,74 %
30.12.2022 05:32 5,3 C 4,4 C 1,7 C 90 % 1011,6 hPa 0,0 l/m 0 min 0 min 0 W/m 9,7 km/h (2 Bft) 93,62 %
30.12.2022 05:34 5,3 C 4,4 C 1,7 C 90 % 1011,6 hPa 0,0 l/m 0 min 0 min 0 W/m 6,4 km/h (2 Bft) 93,62 %
30.12.2022 05:36 5,3 C 4,4 C 1,7 C 91 % 1011,6 hPa 0,0 l/m 0 min 0 min 0 W/m 16,1 km/h (3 Bft) 93,62 %
30.12.2022 05:38 5,3 C 4,4 C 1,7 C 91 % 1011,6 hPa 0,0 l/m 0 min 0 min 0 W/m 6,4 km/h (2 Bft) 97,83 %
30.12.2022 05:40 5,3 C 4,4 C 1,1 C 91 % 1011,6 hPa 0,0 l/m 0 min 0 min 0 W/m 12,9 km/h (3 Bft) 95,74 %
30.12.2022 05:42 5,3 C 4,4 C 1,1 C 91 % 1011,7 hPa 0,0 l/m 0 min 0 min 0 W/m 6,4 km/h (2 Bft) 93,62 %
30.12.2022 05:44 5,3 C 4,4 C 1,1 C 91 % 1011,7 hPa 0,0 l/m 0 min 0 min 0 W/m 6,4 km/h (2 Bft) 93,62 %
30.12.2022 05:46 5,3 C 4,4 C 1,1 C 91 % 1011,8 hPa 0,0 l/m 0 min 0 min 0 W/m 12,9 km/h (3 Bft) 95,74 %
30.12.2022 05:48 5,2 C 4,4 C 1,1 C 91 % 1011,7 hPa 0,0 l/m 0 min 0 min 0 W/m 12,9 km/h (3 Bft) 95,74 %
30.12.2022 05:50 5,2 C 4,4 C 1,1 C 91 % 1011,7 hPa 0,0 l/m 0 min 0 min 0 W/m 6,4 km/h (2 Bft) 97,87 %
30.12.2022 05:52 5,2 C 4,4 C 1,1 C 91 % 1011,8 hPa 0,0 l/m 0 min 0 min 0 W/m 6,4 km/h (2 Bft) 100,00 %
30.12.2022 05:54 5,2 C 4,4 C 1,1 C 91 % 1011,8 hPa 0,0 l/m 0 min 0 min 0 W/m 6,4 km/h (2 Bft) 97,87 %
30.12.2022 05:56 5,2 C 4,4 C 1,1 C 91 % 1011,8 hPa 0,0 l/m 0 min 0 min 0 W/m 9,7 km/h (2 Bft) 95,74 %
30.12.2022 05:58 5,2 C 4,4 C 1,1 C 91 % 1011,9 hPa 0,0 l/m 0 min 0 min 0 W/m 9,7 km/h (2 Bft) 95,74 %
30.12.2022 06:00 5,2 C 4,4 C 1,1 C 91 % 1012,0 hPa 0,0 l/m 0 min 0 min 0 W/m 6,4 km/h (2 Bft) 97,87 %
30.12.2022 06:02 5,2 C 4,4 C 1,1 C 91 % 1012,0 hPa 0,0 l/m 0 min 0 min 0 W/m 12,9 km/h (3 Bft) 95,74 %
30.12.2022 06:04 5,2 C 4,4 C 1,1 C 91 % 1012,0 hPa 0,0 l/m 0 min 0 min 0 W/m 9,7 km/h (2 Bft) 96,00 %
30.12.2022 06:08 5,2 C 4,4 C 1,1 C 91 % 1012,0 hPa 0,0 l/m 0 min 0 min 0 W/m 12,9 km/h (3 Bft) 96,77 %
30.12.2022 06:10 5,2 C 4,4 C 1,1 C 91 % 1012,0 hPa 0,0 l/m 0 min 0 min 0 W/m 6,4 km/h (2 Bft) 97,87 %
30.12.2022 06:12 5,2 C 4,4 C 1,1 C 91 % 1012,1 hPa 0,0 l/m 0 min 0 min 0 W/m 6,4 km/h (2 Bft) 97,87 %
30.12.2022 06:14 5,2 C 4,4 C 1,1 C 91 % 1012,0 hPa 0,0 l/m 0 min 0 min 0 W/m 6,4 km/h (2 Bft) 100,00 %
30.12.2022 06:16 5,1 C 4,4 C 1,1 C 91 % 1012,0 hPa 0,0 l/m 0 min 0 min 0 W/m 12,9 km/h (3 Bft) 97,87 %
30.12.2022 06:18 5,1 C 4,4 C 1,1 C 91 % 1012,0 hPa 0,0 l/m 0 min 0 min 0 W/m 9,7 km/h (2 Bft) 100,00 %
30.12.2022 06:20 5,1 C 4,4 C 1,1 C 91 % 1011,9 hPa 0,0 l/m 0 min 0 min 0 W/m 6,4 km/h (2 Bft) 100,00 %
30.12.2022 06:22 5,1 C 4,4 C 1,1 C 92 % 1011,9 hPa 0,0 l/m 0 min 0 min 0 W/m 6,4 km/h (2 Bft) 100,00 %
30.12.2022 06:24 5,1 C 4,4 C 1,1 C 92 % 1011,9 hPa 0,0 l/m 0 min 0 min 0 W/m 6,4 km/h (2 Bft) 100,00 %
30.12.2022 06:26 5,1 C 3,9 C 1,1 C 92 % 1012,0 hPa 0,0 l/m 0 min 0 min 0 W/m 12,9 km/h (3 Bft) 97,87 %
30.12.2022 06:28 5,1 C 3,9 C 1,1 C 92 % 1012,0 hPa 0,0 l/m 0 min 0 min 0 W/m 12,9 km/h (3 Bft) 97,87 %
30.12.2022 06:30 5,1 C 3,9 C 1,1 C 92 % 1012,0 hPa 0,0 l/m 0 min 0 min 0 W/m 16,1 km/h (3 Bft) 100,00 %
30.12.2022 06:32 5,1 C 3,9 C 1,1 C 92 % 1012,0 hPa 0,0 l/m 0 min 0 min 0 W/m 9,7 km/h (2 Bft) 100,00 %
30.12.2022 06:34 5,0 C 3,9 C 1,1 C 92 % 1012,0 hPa 0,0 l/m 0 min 0 min 0 W/m 12,9 km/h (3 Bft) 97,87 %
30.12.2022 06:36 5,0 C 3,9 C 1,1 C 92 % 1012,0 hPa 0,0 l/m 0 min 0 min 0 W/m 12,9 km/h (3 Bft) 100,00 %
30.12.2022 06:38 5,0 C 3,9 C 1,1 C 92 % 1012,0 hPa 0,0 l/m 0 min 0 min 0 W/m 16,1 km/h (3 Bft) 100,00 %
30.12.2022 06:40 4,9 C 3,9 C 1,1 C 92 % 1012,0 hPa 0,0 l/m 0 min 0 min 0 W/m 12,9 km/h (3 Bft) 100,00 %
30.12.2022 06:42 4,9 C 3,9 C 1,1 C 92 % 1012,0 hPa 0,0 l/m 0 min 0 min 0 W/m 6,4 km/h (2 Bft) 100,00 %
30.12.2022 06:44 4,9 C 3,9 C 1,1 C 92 % 1012,0 hPa 0,0 l/m 0 min 0 min 0 W/m 12,9 km/h (3 Bft) 100,00 %
30.12.2022 06:46 4,8 C 3,9 C 1,1 C 92 % 1011,9 hPa 0,0 l/m 0 min 0 min 0 W/m 12,9 km/h (3 Bft) 100,00 %
30.12.2022 06:48 4,8 C 3,9 C 1,1 C 92 % 1011,9 hPa 0,0 l/m 0 min 0 min 0 W/m 12,9 km/h (3 Bft) 100,00 %
30.12.2022 06:50 4,8 C 3,9 C 1,1 C 92 % 1011,9 hPa 0,0 l/m 0 min 0 min 0 W/m 6,4 km/h (2 Bft) 100,00 %
30.12.2022 06:52 4,8 C 3,9 C 1,1 C 92 % 1011,8 hPa 0,0 l/m 0 min 0 min 0 W/m 6,4 km/h (2 Bft) 95,74 %
30.12.2022 06:54 4,7 C 3,9 C 0,6 C 92 % 1011,9 hPa 0,0 l/m 0 min 0 min 0 W/m 12,9 km/h (3 Bft) 97,87 %
30.12.2022 06:56 4,7 C 3,3 C 0,6 C 92 % 1011,9 hPa 0,0 l/m 0 min 0 min 0 W/m 6,4 km/h (2 Bft) 95,74 %
30.12.2022 06:58 4,7 C 3,3 C 0,6 C 92 % 1011,8 hPa 0,0 l/m 0 min 0 min 0 W/m 6,4 km/h (2 Bft) 97,83 %
30.12.2022 07:00 4,6 C 3,3 C 0,6 C 92 % 1011,8 hPa 0,0 l/m 0 min 0 min 0 W/m 12,9 km/h (3 Bft) 97,87 %
30.12.2022 07:02 4,6 C 3,3 C 0,6 C 92 % 1011,8 hPa 0,0 l/m 0 min 0 min 0 W/m 6,4 km/h (2 Bft) 95,74 %
30.12.2022 07:04 4,6 C 3,3 C 0,6 C 92 % 1011,8 hPa 0,0 l/m 0 min 0 min 0 W/m 12,9 km/h (3 Bft) 97,87 %
30.12.2022 07:06 4,5 C 3,3 C 0,6 C 92 % 1011,8 hPa 0,0 l/m 0 min 0 min 0 W/m 12,9 km/h (3 Bft) 95,74 %
30.12.2022 07:08 4,5 C 3,3 C 0,6 C 92 % 1011,7 hPa 0,0 l/m 0 min 0 min 0 W/m 12,9 km/h (3 Bft) 97,87 %
30.12.2022 07:10 4,4 C 3,3 C 0,6 C 92 % 1011,7 hPa 0,0 l/m 0 min 0 min 0 W/m 12,9 km/h (3 Bft) 97,83 %
30.12.2022 07:12 4,4 C 3,3 C 0,6 C 92 % 1011,6 hPa 0,0 l/m 0 min 0 min 0 W/m 12,9 km/h (3 Bft) 95,74 %
30.12.2022 07:14 4,4 C 3,3 C 0,6 C 92 % 1011,6 hPa 0,0 l/m 0 min 0 min 0 W/m 16,1 km/h (3 Bft) 97,87 %
30.12.2022 07:16 4,4 C 3,3 C 0,6 C 92 % 1011,5 hPa 0,0 l/m 0 min 0 min 0 W/m 12,9 km/h (3 Bft) 95,74 %
30.12.2022 07:18 4,4 C 3,3 C 0,6 C 92 % 1011,6 hPa 0,0 l/m 0 min 0 min 0 W/m 12,9 km/h (3 Bft) 97,87 %
30.12.2022 07:20 4,4 C 3,3 C 0,6 C 92 % 1011,6 hPa 0,0 l/m 0 min 0 min 0 W/m 12,9 km/h (3 Bft) 97,87 %
30.12.2022 07:22 4,4 C 3,3 C 0,6 C 92 % 1011,7 hPa 0,0 l/m 0 min 0 min 0 W/m 16,1 km/h (3 Bft) 95,65 %
30.12.2022 07:24 4,4 C 3,3 C 0,6 C 92 % 1011,7 hPa 0,0 l/m 0 min 0 min 0 W/m 6,4 km/h (2 Bft) 100,00 %
30.12.2022 07:26 4,4 C 3,9 C 0,6 C 92 % 1011,6 hPa 0,0 l/m 0 min 0 min 0 W/m 12,9 km/h (3 Bft) 100,00 %
30.12.2022 07:28 4,4 C 3,9 C 0,6 C 92 % 1011,6 hPa 0,0 l/m 0 min 0 min 0 W/m 12,9 km/h (3 Bft) 100,00 %
30.12.2022 07:30 4,4 C 3,3 C 0,6 C 92 % 1011,6 hPa 0,0 l/m 0 min 0 min 0 W/m 12,9 km/h (3 Bft) 100,00 %
30.12.2022 07:32 4,4 C 3,3 C 0,6 C 92 % 1011,5 hPa 0,0 l/m 0 min 0 min 0 W/m 6,4 km/h (2 Bft) 97,87 %
30.12.2022 07:34 4,3 C 3,3 C 0,6 C 92 % 1011,6 hPa 0,0 l/m 0 min 0 min 0 W/m 12,9 km/h (3 Bft) 97,83 %
30.12.2022 07:36 4,3 C 3,3 C 0,6 C 92 % 1011,5 hPa 0,0 l/m 0 min 0 min 0 W/m 12,9 km/h (3 Bft) 97,87 %
30.12.2022 07:38 4,3 C 3,9 C 0,6 C 92 % 1011,5 hPa 0,0 l/m 0 min 0 min 0 W/m 6,4 km/h (2 Bft) 97,87 %
30.12.2022 07:40 4,3 C 3,9 C 0,6 C 92 % 1011,5 hPa 0,0 l/m 0 min 0 min 0 W/m 22,5 km/h (4 Bft) 100,00 %
30.12.2022 07:42 4,4 C 3,9 C 0,6 C 92 % 1011,4 hPa 0,0 l/m 0 min 0 min 0 W/m 12,9 km/h (3 Bft) 100,00 %
30.12.2022 07:44 4,3 C 3,9 C 0,6 C 92 % 1011,4 hPa 0,0 l/m 0 min 0 min 0 W/m 19,3 km/h (3 Bft) 97,87 %
30.12.2022 07:46 4,4 C 3,9 C 0,6 C 92 % 1011,4 hPa 0,0 l/m 0 min 0 min 0 W/m 12,9 km/h (3 Bft) 100,00 %
30.12.2022 07:48 4,4 C 3,9 C 0,6 C 92 % 1011,3 hPa 0,0 l/m 0 min 0 min 0 W/m 12,9 km/h (3 Bft) 100,00 %
30.12.2022 07:50 4,3 C 3,9 C 0,6 C 92 % 1011,2 hPa 0,0 l/m 0 min 0 min 0 W/m 6,4 km/h (2 Bft) 100,00 %
30.12.2022 07:52 4,3 C 3,9 C 0,6 C 92 % 1011,2 hPa 0,0 l/m 0 min 0 min 0 W/m 12,9 km/h (3 Bft) 97,87 %
30.12.2022 07:54 4,4 C 3,9 C 0,6 C 92 % 1011,2 hPa 0,0 l/m 0 min 0 min 0 W/m 9,7 km/h (2 Bft) 96,00 %
30.12.2022 07:56 4,3 C 3,9 C 0,6 C 92 % 1011,2 hPa 0,0 l/m 0 min 0 min 0 W/m 6,4 km/h (2 Bft) 97,87 %
30.12.2022 07:58 4,3 C 3,9 C 0,6 C 92 % 1011,2 hPa 0,0 l/m 0 min 0 min 0 W/m 6,4 km/h (2 Bft) 97,87 %
30.12.2022 08:00 4,3 C 3,3 C 0,6 C 92 % 1011,2 hPa 0,0 l/m 0 min 0 min 0 W/m 12,9 km/h (3 Bft) 97,87 %
30.12.2022 08:02 4,3 C 3,3 C 0,6 C 92 % 1011,2 hPa 0,0 l/m 0 min 0 min 0 W/m 19,3 km/h (3 Bft) 97,83 %
30.12.2022 08:04 4,3 C 3,3 C 0,6 C 92 % 1011,2 hPa 0,0 l/m 0 min 0 min 0 W/m 16,1 km/h (3 Bft) 97,87 %
30.12.2022 08:06 4,3 C 3,3 C 0,6 C 92 % 1011,2 hPa 0,0 l/m 0 min 0 min 0 W/m 9,7 km/h (2 Bft) 95,74 %
30.12.2022 08:08 4,3 C 3,3 C 0,6 C 92 % 1011,1 hPa 0,0 l/m 0 min 0 min 0 W/m 6,4 km/h (2 Bft) 95,74 %
30.12.2022 08:10 4,3 C 3,3 C 0,6 C 92 % 1011,2 hPa 0,0 l/m 0 min 0 min 0 W/m 16,1 km/h (3 Bft) 95,74 %
30.12.2022 08:12 4,3 C 3,3 C 0,6 C 92 % 1011,2 hPa 0,0 l/m 0 min 0 min 0 W/m 12,9 km/h (3 Bft) 91,49 %
30.12.2022 08:14 4,3 C 3,3 C 0,6 C 92 % 1011,1 hPa 0,0 l/m 0 min 0 min 0 W/m 12,9 km/h (3 Bft) 95,65 %
30.12.2022 08:16 4,3 C 3,9 C 0,6 C 92 % 1011,1 hPa 0,0 l/m 0 min 0 min 0 W/m 16,1 km/h (3 Bft) 93,62 %
30.12.2022 08:18 4,3 C 3,9 C 0,6 C 93 % 1011,2 hPa 0,0 l/m 0 min 0 min 0 W/m 16,1 km/h (3 Bft) 95,74 %
30.12.2022 08:20 4,3 C 3,9 C 0,6 C 93 % 1011,1 hPa 0,0 l/m 0 min 0 min 0 W/m 19,3 km/h (3 Bft) 95,74 %
30.12.2022 08:22 4,3 C 3,9 C 0,6 C 93 % 1011,1 hPa 0,0 l/m 0 min 0 min 0 W/m 12,9 km/h (3 Bft) 91,49 %
30.12.2022 08:24 4,3 C 3,9 C 0,6 C 93 % 1011,0 hPa 0,0 l/m 0 min 0 min 4 W/m 16,1 km/h (3 Bft) 95,74 %
30.12.2022 08:26 4,3 C 3,9 C 0,6 C 93 % 1011,0 hPa 0,0 l/m 0 min 0 min 5 W/m 12,9 km/h (3 Bft) 91,30 %
30.12.2022 08:28 4,3 C 3,9 C 0,6 C 93 % 1011,0 hPa 0,0 l/m 0 min 0 min 5 W/m 12,9 km/h (3 Bft) 93,62 %
30.12.2022 08:30 4,3 C 3,9 C 0,6 C 93 % 1011,0 hPa 0,0 l/m 0 min 0 min 6 W/m 19,3 km/h (3 Bft) 95,74 %
30.12.2022 08:32 4,3 C 3,9 C 1,1 C 93 % 1011,1 hPa 0,0 l/m 0 min 0 min 7 W/m 12,9 km/h (3 Bft) 55,32 %
30.12.2022 08:34 4,3 C 3,9 C 1,1 C 93 % 1010,9 hPa 0,0 l/m 0 min 0 min 7 W/m 19,3 km/h (3 Bft) 95,74 %
30.12.2022 08:36 4,3 C 3,9 C 1,1 C 93 % 1010,9 hPa 0,0 l/m 0 min 0 min 6 W/m 16,1 km/h (3 Bft) 97,87 %
30.12.2022 08:38 4,3 C 3,9 C 0,6 C 93 % 1010,9 hPa 0,0 l/m 0 min 0 min 5 W/m 12,9 km/h (3 Bft) 97,87 %
30.12.2022 08:40 4,3 C 3,9 C 0,6 C 93 % 1010,8 hPa 0,0 l/m 0 min 0 min 5 W/m 12,9 km/h (3 Bft) 97,83 %
30.12.2022 08:42 4,3 C 3,9 C 1,1 C 93 % 1010,8 hPa 0,0 l/m 0 min 0 min 5 W/m 12,9 km/h (3 Bft) 93,62 %
30.12.2022 08:44 4,3 C 3,9 C 1,1 C 93 % 1010,7 hPa 0,0 l/m 0 min 0 min 5 W/m 12,9 km/h (3 Bft) 95,74 %
30.12.2022 08:46 4,3 C 3,9 C 1,1 C 93 % 1010,7 hPa 0,0 l/m 0 min 0 min 5 W/m 16,1 km/h (3 Bft) 95,74 %
30.12.2022 08:48 4,4 C 3,9 C 1,1 C 93 % 1010,6 hPa 0,0 l/m 0 min 0 min 7 W/m 16,1 km/h (3 Bft) 93,62 %
30.12.2022 08:50 4,4 C 3,9 C 1,1 C 93 % 1010,7 hPa 0,0 l/m 0 min 0 min 8 W/m 12,9 km/h (3 Bft) 93,62 %
30.12.2022 08:52 4,4 C 3,9 C 1,1 C 93 % 1010,7 hPa 0,0 l/m 0 min 0 min 9 W/m 19,3 km/h (3 Bft) 95,74 %
30.12.2022 08:54 4,4 C 3,9 C 1,1 C 93 % 1010,7 hPa 0,0 l/m 0 min 0 min 9 W/m 16,1 km/h (3 Bft) 93,48 %
30.12.2022 08:56 4,4 C 3,9 C 1,1 C 93 % 1010,7 hPa 0,0 l/m 0 min 0 min 11 W/m 16,1 km/h (3 Bft) 97,87 %
30.12.2022 08:58 4,4 C 3,9 C 1,1 C 93 % 1010,7 hPa 0,0 l/m 0 min 0 min 11 W/m 19,3 km/h (3 Bft) 95,74 %
30.12.2022 09:00 4,5 C 3,9 C 1,1 C 93 % 1010,7 hPa 0,0 l/m 0 min 0 min 12 W/m 16,1 km/h (3 Bft) 95,74 %
30.12.2022 09:02 4,5 C 3,9 C 1,1 C 93 % 1010,6 hPa 0,0 l/m 0 min 0 min 13 W/m 16,1 km/h (3 Bft) 97,87 %
30.12.2022 09:04 4,6 C 3,9 C 1,1 C 93 % 1010,7 hPa 0,0 l/m 0 min 0 min 14 W/m 12,9 km/h (3 Bft) 91,49 %
30.12.2022 09:06 4,6 C 4,4 C 1,1 C 93 % 1010,6 hPa 0,0 l/m 0 min 0 min 16 W/m 16,1 km/h (3 Bft) 93,48 %
30.12.2022 09:08 4,6 C 4,4 C 1,1 C 93 % 1010,6 hPa 0,0 l/m 0 min 0 min 18 W/m 12,9 km/h (3 Bft) 97,87 %
30.12.2022 09:10 4,6 C 4,4 C 1,1 C 93 % 1010,6 hPa 0,0 l/m 0 min 0 min 19 W/m 12,9 km/h (3 Bft) 97,87 %
30.12.2022 09:12 4,7 C 4,4 C 1,1 C 93 % 1010,6 hPa 0,0 l/m 0 min 0 min 20 W/m 16,1 km/h (3 Bft) 95,74 %
30.12.2022 09:14 4,7 C 4,4 C 1,1 C 93 % 1010,6 hPa 0,0 l/m 0 min 0 min 21 W/m 12,9 km/h (3 Bft) 100,00 %
30.12.2022 09:16 4,7 C 4,4 C 1,1 C 93 % 1010,5 hPa 0,0 l/m 0 min 0 min 23 W/m 22,5 km/h (4 Bft) 100,00 %
30.12.2022 09:18 4,7 C 4,4 C 1,1 C 93 % 1010,4 hPa 0,0 l/m 0 min 0 min 25 W/m 16,1 km/h (3 Bft) 100,00 %
30.12.2022 09:20 4,8 C 4,4 C 1,1 C 93 % 1010,4 hPa 0,0 l/m 0 min 0 min 25 W/m 16,1 km/h (3 Bft) 100,00 %
30.12.2022 09:22 4,8 C 4,4 C 1,7 C 93 % 1010,3 hPa 0,0 l/m 0 min 0 min 26 W/m 16,1 km/h (3 Bft) 100,00 %
30.12.2022 09:24 4,8 C 4,4 C 1,7 C 93 % 1010,3 hPa 0,0 l/m 0 min 0 min 27 W/m 16,1 km/h (3 Bft) 100,00 %
30.12.2022 09:26 4,8 C 4,4 C 1,7 C 93 % 1010,2 hPa 0,0 l/m 0 min 0 min 28 W/m 16,1 km/h (3 Bft) 97,87 %
30.12.2022 09:28 4,9 C 4,4 C 1,7 C 93 % 1010,2 hPa 0,0 l/m 0 min 0 min 30 W/m 16,1 km/h (3 Bft) 100,00 %
30.12.2022 09:30 4,9 C 4,4 C 1,7 C 93 % 1010,1 hPa 0,0 l/m 0 min 0 min 31 W/m 12,9 km/h (3 Bft) 100,00 %
30.12.2022 09:32 4,9 C 5,0 C 1,7 C 93 % 1010,1 hPa 0,0 l/m 0 min 0 min 32 W/m 12,9 km/h (3 Bft) 59,57 %
30.12.2022 09:34 5,0 C 5,0 C 1,7 C 93 % 1010,0 hPa 0,0 l/m 0 min 0 min 32 W/m 16,1 km/h (3 Bft) 96,88 %
30.12.2022 09:36 5,1 C 5,0 C 1,7 C 93 % 1010,0 hPa 0,0 l/m 0 min 0 min 35 W/m 16,1 km/h (3 Bft) 100,00 %
30.12.2022 09:38 5,1 C 5,0 C 1,7 C 93 % 1010,0 hPa 0,0 l/m 0 min 0 min 36 W/m 19,3 km/h (3 Bft) 100,00 %
30.12.2022 09:40 5,1 C 5,0 C 1,7 C 93 % 1010,0 hPa 0,0 l/m 0 min 0 min 39 W/m 16,1 km/h (3 Bft) 100,00 %
30.12.2022 09:42 5,2 C 5,0 C 1,7 C 93 % 1009,9 hPa 0,0 l/m 0 min 0 min 40 W/m 12,9 km/h (3 Bft) 100,00 %
30.12.2022 09:44 5,2 C 5,0 C 1,7 C 93 % 1009,9 hPa 0,0 l/m 0 min 0 min 42 W/m 19,3 km/h (3 Bft) 100,00 %
30.12.2022 09:46 5,2 C 5,0 C 1,7 C 93 % 1009,9 hPa 0,0 l/m 0 min 0 min 43 W/m 16,1 km/h (3 Bft) 95,65 %
30.12.2022 09:48 5,3 C 5,0 C 1,7 C 93 % 1009,9 hPa 0,0 l/m 0 min 0 min 44 W/m 19,3 km/h (3 Bft) 97,87 %
30.12.2022 09:50 5,3 C 5,0 C 1,7 C 93 % 1009,9 hPa 0,0 l/m 0 min 0 min 45 W/m 19,3 km/h (3 Bft) 97,87 %
30.12.2022 09:52 5,4 C 5,0 C 2,2 C 93 % 1009,8 hPa 0,0 l/m 0 min 0 min 48 W/m 12,9 km/h (3 Bft) 100,00 %
30.12.2022 09:54 5,4 C 5,0 C 2,2 C 93 % 1009,8 hPa 0,0 l/m 0 min 0 min 50 W/m 19,3 km/h (3 Bft) 100,00 %
30.12.2022 09:56 5,4 C 5,0 C 2,2 C 92 % 1009,7 hPa 0,0 l/m 0 min 0 min 52 W/m 19,3 km/h (3 Bft) 100,00 %
30.12.2022 09:58 5,4 C 5,6 C 2,2 C 92 % 1009,7 hPa 0,0 l/m 0 min 0 min 55 W/m 16,1 km/h (3 Bft) 97,83 %
30.12.2022 10:00 5,5 C 5,6 C 2,2 C 92 % 1009,7 hPa 0,0 l/m 0 min 0 min 61 W/m 12,9 km/h (3 Bft) 100,00 %
30.12.2022 10:02 5,5 C 5,6 C 2,2 C 92 % 1009,7 hPa 0,0 l/m 0 min 0 min 65 W/m 19,3 km/h (3 Bft) 97,87 %
30.12.2022 10:04 5,6 C 5,6 C 2,2 C 93 % 1009,7 hPa 0,0 l/m 0 min 0 min 68 W/m 19,3 km/h (3 Bft) 100,00 %
30.12.2022 10:06 5,6 C 5,6 C 2,2 C 93 % 1009,6 hPa 0,0 l/m 0 min 0 min 71 W/m 22,5 km/h (4 Bft) 97,87 %
30.12.2022 10:08 5,7 C 5,6 C 2,2 C 93 % 1009,6 hPa 0,0 l/m 0 min 0 min 72 W/m 16,1 km/h (3 Bft) 100,00 %
30.12.2022 10:10 5,7 C 6,1 C 2,2 C 93 % 1009,6 hPa 0,0 l/m 0 min 0 min 74 W/m 12,9 km/h (3 Bft) 97,83 %
30.12.2022 10:12 5,8 C 6,1 C 2,8 C 92 % 1009,5 hPa 0,0 l/m 0 min 0 min 74 W/m 12,9 km/h (3 Bft) 100,00 %
30.12.2022 10:14 5,8 C 6,1 C 2,8 C 92 % 1009,5 hPa 0,0 l/m 0 min 0 min 74 W/m 12,9 km/h (3 Bft) 100,00 %
30.12.2022 10:16 5,9 C 6,1 C 2,8 C 92 % 1009,4 hPa 0,0 l/m 0 min 0 min 76 W/m 22,5 km/h (4 Bft) 100,00 %
30.12.2022 10:18 6,0 C 6,1 C 2,8 C 93 % 1009,3 hPa 0,0 l/m 0 min 0 min 76 W/m 19,3 km/h (3 Bft) 97,87 %
30.12.2022 10:20 6,1 C 6,1 C 2,8 C 93 % 1009,3 hPa 0,0 l/m 0 min 0 min 77 W/m 19,3 km/h (3 Bft) 95,74 %
30.12.2022 10:22 6,1 C 6,7 C 2,8 C 92 % 1009,3 hPa 0,0 l/m 0 min 0 min 79 W/m 19,3 km/h (3 Bft) 100,00 %
30.12.2022 10:24 6,2 C 6,7 C 2,8 C 92 % 1009,2 hPa 0,0 l/m 0 min 0 min 79 W/m 25,7 km/h (4 Bft) 97,83 %
30.12.2022 10:26 6,3 C 6,7 C 2,8 C 92 % 1009,3 hPa 0,0 l/m 0 min 0 min 79 W/m 16,1 km/h (3 Bft) 97,87 %
30.12.2022 10:28 6,4 C 6,7 C 3,3 C 92 % 1009,2 hPa 0,0 l/m 0 min 0 min 81 W/m 22,5 km/h (4 Bft) 95,74 %
30.12.2022 10:30 6,4 C 6,7 C 3,3 C 92 % 1009,2 hPa 0,0 l/m 0 min 0 min 83 W/m 16,1 km/h (3 Bft) 97,87 %
30.12.2022 10:32 6,5 C 6,7 C 3,3 C 92 % 1009,1 hPa 0,0 l/m 0 min 0 min 83 W/m 16,1 km/h (3 Bft) 93,62 %
30.12.2022 10:34 6,6 C 6,7 C 3,3 C 92 % 1009,0 hPa 0,0 l/m 0 min 0 min 84 W/m 22,5 km/h (4 Bft) 97,87 %
30.12.2022 10:36 6,6 C 6,7 C 3,3 C 92 % 1009,1 hPa 0,0 l/m 0 min 0 min 82 W/m 19,3 km/h (3 Bft) 97,83 %
30.12.2022 10:38 6,7 C 6,7 C 3,3 C 91 % 1009,1 hPa 0,0 l/m 0 min 0 min 82 W/m 19,3 km/h (3 Bft) 95,74 %
30.12.2022 10:40 6,8 C 7,2 C 3,3 C 91 % 1009,0 hPa 0,0 l/m 0 min 0 min 83 W/m 19,3 km/h (3 Bft) 91,49 %
30.12.2022 10:42 6,8 C 7,2 C 3,3 C 91 % 1009,0 hPa 0,0 l/m 0 min 0 min 84 W/m 22,5 km/h (4 Bft) 95,74 %
30.12.2022 10:44 6,9 C 7,2 C 3,9 C 91 % 1008,9 hPa 0,0 l/m 0 min 0 min 86 W/m 22,5 km/h (4 Bft) 100,00 %
30.12.2022 10:46 7,1 C 7,2 C 3,9 C 91 % 1008,9 hPa 0,0 l/m 0 min 0 min 90 W/m 16,1 km/h (3 Bft) 95,89 %
30.12.2022 10:48 7,1 C 7,2 C 3,9 C 91 % 1008,9 hPa 0,0 l/m 0 min 0 min 96 W/m 19,3 km/h (3 Bft) 93,62 %
30.12.2022 10:50 7,2 C 7,2 C 3,9 C 90 % 1008,8 hPa 0,0 l/m 0 min 0 min 102 W/m 19,3 km/h (3 Bft) 95,74 %
30.12.2022 10:52 7,3 C 7,8 C 3,9 C 90 % 1008,8 hPa 0,0 l/m 0 min 0 min 108 W/m 22,5 km/h (4 Bft) 95,65 %
30.12.2022 10:54 7,3 C 7,8 C 3,9 C 90 % 1008,7 hPa 0,0 l/m 2 min 0 min 121 W/m 19,3 km/h (3 Bft) 95,74 %
30.12.2022 10:56 7,4 C 7,8 C 3,9 C 89 % 1008,7 hPa 0,0 l/m 2 min 0 min 134 W/m 16,1 km/h (3 Bft) 93,62 %
30.12.2022 10:58 7,6 C 7,8 C 4,4 C 89 % 1008,5 hPa 0,0 l/m 2 min 0 min 154 W/m 22,5 km/h (4 Bft) 95,74 %
30.12.2022 11:00 7,6 C 8,3 C 4,4 C 89 % 1008,6 hPa 0,0 l/m 2 min 0 min 175 W/m 19,3 km/h (3 Bft) 89,36 %
30.12.2022 11:02 7,7 C 8,3 C 4,4 C 89 % 1008,5 hPa 0,0 l/m 2 min 0 min 190 W/m 22,5 km/h (4 Bft) 89,36 %
30.12.2022 11:04 7,8 C 8,3 C 4,4 C 89 % 1008,5 hPa 0,0 l/m 2 min 0 min 200 W/m 22,5 km/h (4 Bft) 91,49 %
30.12.2022 11:06 7,9 C 8,3 C 4,4 C 88 % 1008,5 hPa 0,0 l/m 2 min 0 min 207 W/m 22,5 km/h (4 Bft) 93,48 %
30.12.2022 11:08 8,0 C 8,3 C 4,4 C 88 % 1008,4 hPa 0,0 l/m 2 min 0 min 199 W/m 41,8 km/h (6 Bft) 93,62 %
30.12.2022 11:10 8,1 C 8,3 C 4,4 C 87 % 1008,4 hPa 0,0 l/m 2 min 0 min 205 W/m 25,7 km/h (4 Bft) 93,62 %
30.12.2022 11:12 8,2 C 8,3 C 4,4 C 87 % 1008,4 hPa 0,0 l/m 2 min 0 min 178 W/m 32,2 km/h (5 Bft) 91,49 %
30.12.2022 11:14 8,3 C 8,3 C 4,4 C 87 % 1008,4 hPa 0,0 l/m 2 min 0 min 157 W/m 29,0 km/h (5 Bft) 95,74 %
30.12.2022 11:16 8,3 C 8,3 C 4,4 C 86 % 1008,4 hPa 0,0 l/m 2 min 0 min 149 W/m 22,5 km/h (4 Bft) 93,62 %
30.12.2022 11:18 8,4 C 8,3 C 4,4 C 86 % 1008,4 hPa 0,0 l/m 2 min 0 min 141 W/m 41,8 km/h (6 Bft) 97,83 %
30.12.2022 11:20 8,4 C 8,3 C 4,4 C 86 % 1008,4 hPa 0,0 l/m 2 min 0 min 149 W/m 29,0 km/h (5 Bft) 95,74 %
30.12.2022 11:22 8,4 C 8,3 C 4,4 C 86 % 1008,4 hPa 0,0 l/m 2 min 0 min 148 W/m 35,4 km/h (5 Bft) 97,87 %
30.12.2022 11:24 8,5 C 8,3 C 5,0 C 86 % 1008,3 hPa 0,0 l/m 2 min 0 min 142 W/m 29,0 km/h (5 Bft) 97,87 %
30.12.2022 11:26 8,5 C 8,3 C 5,0 C 85 % 1008,2 hPa 0,0 l/m 2 min 0 min 138 W/m 32,2 km/h (5 Bft) 100,00 %
30.12.2022 11:28 8,6 C 8,3 C 5,0 C 85 % 1008,3 hPa 0,0 l/m 0 min 0 min 133 W/m 38,6 km/h (5 Bft) 97,87 %
30.12.2022 11:30 8,6 C 8,3 C 5,0 C 85 % 1008,2 hPa 0,0 l/m 0 min 0 min 128 W/m 29,0 km/h (5 Bft) 91,49 %
30.12.2022 11:32 8,6 C 8,3 C 5,0 C 85 % 1008,2 hPa 0,0 l/m 0 min 0 min 125 W/m 32,2 km/h (5 Bft) 97,83 %
30.12.2022 11:34 8,6 C 8,3 C 5,0 C 85 % 1008,2 hPa 0,0 l/m 0 min 0 min 125 W/m 25,7 km/h (4 Bft) 97,87 %
30.12.2022 11:36 8,6 C 8,3 C 5,0 C 85 % 1008,1 hPa 0,0 l/m 0 min 0 min 123 W/m 32,2 km/h (5 Bft) 95,74 %
30.12.2022 11:38 8,6 C 8,3 C 5,0 C 85 % 1008,1 hPa 0,0 l/m 0 min 0 min 121 W/m 19,3 km/h (3 Bft) 97,87 %
30.12.2022 11:40 8,6 C 8,3 C 5,0 C 85 % 1008,1 hPa 0,0 l/m 0 min 0 min 119 W/m 22,5 km/h (4 Bft) 97,87 %
30.12.2022 11:42 8,6 C 8,3 C 5,0 C 85 % 1008,1 hPa 0,0 l/m 0 min 0 min 114 W/m 35,4 km/h (5 Bft) 97,87 %
30.12.2022 11:44 8,7 C 8,3 C 5,0 C 85 % 1008,0 hPa 0,0 l/m 0 min 0 min 111 W/m 19,3 km/h (3 Bft) 100,00 %
30.12.2022 11:46 8,6 C 8,3 C 5,0 C 85 % 1008,0 hPa 0,0 l/m 0 min 0 min 108 W/m 41,8 km/h (6 Bft) 97,87 %
30.12.2022 11:48 8,6 C 8,3 C 5,0 C 85 % 1007,9 hPa 0,0 l/m 0 min 0 min 103 W/m 25,7 km/h (4 Bft) 97,87 %
30.12.2022 11:50 8,7 C 8,3 C 5,0 C 85 % 1007,8 hPa 0,0 l/m 0 min 0 min 98 W/m 22,5 km/h (4 Bft) 100,00 %
30.12.2022 11:52 8,6 C 8,3 C 4,4 C 85 % 1007,8 hPa 0,0 l/m 0 min 0 min 93 W/m 22,5 km/h (4 Bft) 100,00 %
30.12.2022 11:54 8,6 C 8,3 C 4,4 C 85 % 1007,8 hPa 0,0 l/m 0 min 0 min 87 W/m 32,2 km/h (5 Bft) 95,74 %
30.12.2022 11:56 8,6 C 8,3 C 4,4 C 85 % 1007,7 hPa 0,0 l/m 0 min 0 min 82 W/m 35,4 km/h (5 Bft) 97,87 %
30.12.2022 11:58 8,6 C 7,8 C 4,4 C 85 % 1007,7 hPa 0,0 l/m 0 min 0 min 78 W/m 22,5 km/h (4 Bft) 100,00 %
30.12.2022 12:00 8,6 C 7,8 C 4,4 C 85 % 1007,6 hPa 0,0 l/m 0 min 0 min 74 W/m 35,4 km/h (5 Bft) 95,74 %
30.12.2022 12:02 8,6 C 7,8 C 4,4 C 85 % 1007,5 hPa 0,0 l/m 0 min 0 min 70 W/m 29,0 km/h (5 Bft) 97,87 %
30.12.2022 12:04 8,6 C 7,8 C 4,4 C 85 % 1007,5 hPa 0,0 l/m 0 min 0 min 69 W/m 22,5 km/h (4 Bft) 100,00 %
30.12.2022 12:08 8,6 C 7,8 C 4,4 C 85 % 1007,4 hPa 0,0 l/m 0 min 0 min 67 W/m 22,5 km/h (4 Bft) 98,94 %
30.12.2022 12:10 8,6 C 7,8 C 4,4 C 85 % 1007,2 hPa 0,0 l/m 0 min 0 min 67 W/m 25,7 km/h (4 Bft) 100,00 %
30.12.2022 12:12 8,6 C 7,8 C 4,4 C 85 % 1007,2 hPa 0,0 l/m 0 min 0 min 65 W/m 29,0 km/h (5 Bft) 96,43 %
30.12.2022 12:14 8,6 C 7,8 C 4,4 C 85 % 1007,0 hPa 0,0 l/m 0 min 0 min 63 W/m 35,4 km/h (5 Bft) 100,00 %
30.12.2022 12:16 8,6 C 7,8 C 4,4 C 85 % 1006,9 hPa 0,0 l/m 0 min 0 min 63 W/m 29,0 km/h (5 Bft) 100,00 %
30.12.2022 12:18 8,6 C 7,8 C 4,4 C 85 % 1006,9 hPa 0,0 l/m 0 min 0 min 64 W/m 22,5 km/h (4 Bft) 95,74 %
30.12.2022 12:20 8,6 C 7,8 C 4,4 C 85 % 1006,9 hPa 0,0 l/m 0 min 0 min 65 W/m 19,3 km/h (3 Bft) 100,00 %
30.12.2022 12:22 8,6 C 7,8 C 4,4 C 85 % 1006,9 hPa 0,0 l/m 0 min 0 min 67 W/m 29,0 km/h (5 Bft) 100,00 %
30.12.2022 12:24 8,6 C 7,8 C 4,4 C 85 % 1006,9 hPa 0,0 l/m 0 min 0 min 67 W/m 29,0 km/h (5 Bft) 97,87 %
30.12.2022 12:26 8,6 C 7,8 C 4,4 C 85 % 1006,8 hPa 0,0 l/m 0 min 0 min 67 W/m 29,0 km/h (5 Bft) 100,00 %
30.12.2022 12:28 8,6 C 7,8 C 4,4 C 85 % 1006,8 hPa 0,0 l/m 0 min 0 min 66 W/m 22,5 km/h (4 Bft) 100,00 %
30.12.2022 12:30 8,6 C 7,8 C 4,4 C 85 % 1006,7 hPa 0,0 l/m 0 min 0 min 66 W/m 29,0 km/h (5 Bft) 97,87 %
30.12.2022 12:32 8,6 C 8,3 C 4,4 C 85 % 1006,6 hPa 0,0 l/m 0 min 0 min 67 W/m 22,5 km/h (4 Bft) 100,00 %
30.12.2022 12:34 8,6 C 8,3 C 4,4 C 85 % 1006,5 hPa 0,0 l/m 0 min 0 min 67 W/m 22,5 km/h (4 Bft) 97,83 %
30.12.2022 12:36 8,6 C 8,3 C 4,4 C 84 % 1006,5 hPa 0,0 l/m 0 min 0 min 66 W/m 22,5 km/h (4 Bft) 97,87 %
30.12.2022 12:38 8,6 C 8,3 C 4,4 C 84 % 1006,4 hPa 0,0 l/m 0 min 0 min 63 W/m 29,0 km/h (5 Bft) 100,00 %
30.12.2022 12:40 8,6 C 8,3 C 4,4 C 84 % 1006,4 hPa 0,0 l/m 0 min 0 min 63 W/m 32,2 km/h (5 Bft) 97,87 %
30.12.2022 12:42 8,6 C 8,3 C 4,4 C 84 % 1006,3 hPa 0,0 l/m 0 min 0 min 64 W/m 25,7 km/h (4 Bft) 95,74 %
30.12.2022 12:44 8,7 C 8,3 C 4,4 C 84 % 1006,1 hPa 0,0 l/m 0 min 0 min 67 W/m 22,5 km/h (4 Bft) 97,87 %
30.12.2022 12:46 8,7 C 8,3 C 4,4 C 84 % 1006,0 hPa 0,0 l/m 0 min 0 min 69 W/m 22,5 km/h (4 Bft) 93,48 %
30.12.2022 12:48 8,7 C 8,3 C 4,4 C 84 % 1006,0 hPa 0,0 l/m 0 min 0 min 65 W/m 35,4 km/h (5 Bft) 97,87 %
30.12.2022 12:50 8,7 C 8,3 C 4,4 C 84 % 1006,0 hPa 0,0 l/m 0 min 0 min 63 W/m 35,4 km/h (5 Bft) 97,87 %
30.12.2022 12:52 8,7 C 8,3 C 4,4 C 84 % 1005,8 hPa 0,0 l/m 0 min 0 min 58 W/m 32,2 km/h (5 Bft) 95,74 %
30.12.2022 12:54 8,7 C 7,8 C 4,4 C 84 % 1005,6 hPa 0,0 l/m 0 min 0 min 52 W/m 22,5 km/h (4 Bft) 93,62 %
30.12.2022 12:56 8,7 C 7,8 C 4,4 C 84 % 1005,7 hPa 0,0 l/m 0 min 0 min 47 W/m 41,8 km/h (6 Bft) 97,87 %
30.12.2022 12:58 8,7 C 7,8 C 4,4 C 84 % 1005,7 hPa 0,0 l/m 0 min 0 min 46 W/m 45,1 km/h (6 Bft) 95,74 %
30.12.2022 13:00 8,7 C 7,8 C 4,4 C 84 % 1005,6 hPa 0,0 l/m 0 min 0 min 43 W/m 25,7 km/h (4 Bft) 97,83 %
30.12.2022 13:02 8,7 C 7,8 C 4,4 C 84 % 1005,7 hPa 0,0 l/m 0 min 0 min 42 W/m 29,0 km/h (5 Bft) 97,87 %
30.12.2022 13:04 8,7 C 7,8 C 4,4 C 84 % 1005,6 hPa 0,0 l/m 0 min 0 min 42 W/m 35,4 km/h (5 Bft) 97,87 %
30.12.2022 13:06 8,7 C 7,8 C 4,4 C 84 % 1005,6 hPa 0,0 l/m 0 min 0 min 42 W/m 29,0 km/h (5 Bft) 95,74 %
30.12.2022 13:08 8,7 C 7,8 C 4,4 C 84 % 1005,5 hPa 0,0 l/m 0 min 0 min 42 W/m 22,5 km/h (4 Bft) 97,87 %
30.12.2022 13:10 8,7 C 7,8 C 4,4 C 84 % 1005,3 hPa 0,0 l/m 0 min 0 min 42 W/m 25,7 km/h (4 Bft) 97,87 %
30.12.2022 13:12 8,7 C 8,3 C 4,4 C 84 % 1005,3 hPa 0,0 l/m 0 min 0 min 46 W/m 25,7 km/h (4 Bft) 97,14 %
30.12.2022 13:14 8,7 C 8,3 C 4,4 C 84 % 1005,2 hPa 0,0 l/m 0 min 0 min 51 W/m 22,5 km/h (4 Bft) 97,87 %
30.12.2022 13:16 8,7 C 7,8 C 4,4 C 84 % 1005,2 hPa 0,0 l/m 0 min 0 min 51 W/m 29,0 km/h (5 Bft) 95,74 %
30.12.2022 13:18 8,7 C 8,3 C 4,4 C 84 % 1005,1 hPa 0,0 l/m 0 min 0 min 47 W/m 29,0 km/h (5 Bft) 98,28 %
30.12.2022 13:20 8,7 C 8,3 C 5,0 C 84 % 1005,0 hPa 0,0 l/m 0 min 0 min 47 W/m 25,7 km/h (4 Bft) 100,00 %
30.12.2022 13:22 8,7 C 8,3 C 4,4 C 84 % 1005,0 hPa 0,0 l/m 0 min 0 min 50 W/m 25,7 km/h (4 Bft) 100,00 %
30.12.2022 13:24 8,7 C 8,3 C 5,0 C 84 % 1004,8 hPa 0,0 l/m 0 min 0 min 52 W/m 29,0 km/h (5 Bft) 98,31 %
30.12.2022 13:26 8,8 C 8,3 C 5,0 C 84 % 1004,7 hPa 0,0 l/m 0 min 0 min 54 W/m 22,5 km/h (4 Bft) 94,29 %
30.12.2022 13:28 8,8 C 8,3 C 5,0 C 84 % 1004,6 hPa 0,0 l/m 0 min 0 min 56 W/m 22,5 km/h (4 Bft) 95,74 %
30.12.2022 13:30 8,8 C 8,3 C 5,0 C 83 % 1004,5 hPa 0,0 l/m 0 min 0 min 54 W/m 22,5 km/h (4 Bft) 94,83 %
30.12.2022 13:32 8,8 C 8,3 C 5,0 C 83 % 1004,6 hPa 0,0 l/m 0 min 0 min 50 W/m 25,7 km/h (4 Bft) 100,00 %
30.12.2022 13:34 8,8 C 8,3 C 5,0 C 83 % 1004,6 hPa 0,0 l/m 0 min 0 min 49 W/m 22,5 km/h (4 Bft) 95,74 %
30.12.2022 13:42 8,8 C 8,3 C 5,0 C 83 % 1004,4 hPa 0,0 l/m 0 min 0 min 52 W/m 22,5 km/h (4 Bft) 100,00 %
30.12.2022 13:44 8,8 C 8,3 C 5,0 C 83 % 1004,3 hPa 0,0 l/m 0 min 0 min 47 W/m 29,0 km/h (5 Bft) 100,00 %
30.12.2022 13:46 8,8 C 8,3 C 5,0 C 83 % 1004,1 hPa 0,0 l/m 0 min 0 min 45 W/m 32,2 km/h (5 Bft) 95,45 %
30.12.2022 13:48 8,9 C 8,3 C 5,0 C 83 % 1004,1 hPa 0,0 l/m 0 min 0 min 41 W/m 35,4 km/h (5 Bft) 93,62 %
30.12.2022 13:50 8,9 C 8,3 C 5,0 C 83 % 1004,2 hPa 0,0 l/m 0 min 0 min 39 W/m 32,2 km/h (5 Bft) 97,87 %
30.12.2022 13:52 8,9 C 8,3 C 5,0 C 83 % 1004,0 hPa 0,0 l/m 0 min 0 min 37 W/m 32,2 km/h (5 Bft) 97,87 %
30.12.2022 13:54 8,9 C 8,3 C 5,0 C 83 % 1004,0 hPa 0,0 l/m 0 min 0 min 37 W/m 25,7 km/h (4 Bft) 93,62 %
30.12.2022 13:56 8,9 C 8,3 C 5,0 C 83 % 1004,0 hPa 0,0 l/m 0 min 0 min 35 W/m 25,7 km/h (4 Bft) 95,65 %
30.12.2022 13:58 8,9 C 8,3 C 5,0 C 83 % 1004,0 hPa 0,0 l/m 0 min 0 min 33 W/m 22,5 km/h (4 Bft) 95,74 %
30.12.2022 14:00 8,9 C 8,3 C 4,4 C 83 % 1004,0 hPa 0,0 l/m 0 min 2 min 28 W/m 25,7 km/h (4 Bft) 95,74 %
30.12.2022 14:02 9,0 C 7,8 C 3,9 C 84 % 1003,9 hPa 0,0 l/m 0 min 2 min 23 W/m 29,0 km/h (5 Bft) 93,62 %
30.12.2022 14:04 9,0 C 7,8 C 3,9 C 84 % 1003,8 hPa 0,0 l/m 0 min 2 min 21 W/m 25,7 km/h (4 Bft) 93,62 %
30.12.2022 14:06 9,0 C 7,8 C 3,9 C 84 % 1003,6 hPa 0,2 l/m 0 min 2 min 19 W/m 22,5 km/h (4 Bft) 95,74 %
30.12.2022 14:08 8,9 C 7,2 C 3,3 C 85 % 1003,6 hPa 0,0 l/m 0 min 2 min 19 W/m 19,3 km/h (3 Bft) 95,74 %
30.12.2022 14:10 8,9 C 7,2 C 3,3 C 85 % 1003,6 hPa 0,0 l/m 0 min 2 min 19 W/m 25,7 km/h (4 Bft) 95,65 %
30.12.2022 14:12 8,9 C 7,2 C 3,3 C 86 % 1003,5 hPa 0,0 l/m 0 min 2 min 19 W/m 29,0 km/h (5 Bft) 95,74 %
30.12.2022 14:14 8,8 C 7,2 C 3,3 C 86 % 1003,4 hPa 0,0 l/m 0 min 2 min 19 W/m 32,2 km/h (5 Bft) 95,74 %
30.12.2022 14:16 8,8 C 7,2 C 3,3 C 87 % 1003,4 hPa 0,0 l/m 0 min 2 min 19 W/m 25,7 km/h (4 Bft) 95,74 %
30.12.2022 14:18 8,7 C 7,2 C 3,3 C 87 % 1003,3 hPa 0,0 l/m 0 min 2 min 19 W/m 25,7 km/h (4 Bft) 97,87 %
30.12.2022 14:20 8,7 C 7,2 C 3,3 C 87 % 1003,3 hPa 0,2 l/m 0 min 2 min 21 W/m 25,7 km/h (4 Bft) 95,74 %
30.12.2022 14:22 8,7 C 6,7 C 3,3 C 88 % 1003,1 hPa 0,0 l/m 0 min 2 min 21 W/m 19,3 km/h (3 Bft) 97,83 %
30.12.2022 14:24 8,6 C 6,7 C 3,3 C 88 % 1003,1 hPa 0,2 l/m 0 min 2 min 21 W/m 25,7 km/h (4 Bft) 97,87 %
30.12.2022 14:26 8,6 C 6,7 C 2,8 C 88 % 1003,1 hPa 0,0 l/m 0 min 2 min 23 W/m 29,0 km/h (5 Bft) 95,74 %
30.12.2022 14:28 8,6 C 6,7 C 3,3 C 88 % 1003,1 hPa 0,0 l/m 0 min 2 min 25 W/m 22,5 km/h (4 Bft) 97,87 %
30.12.2022 14:30 8,5 C 6,7 C 3,3 C 89 % 1003,0 hPa 0,0 l/m 0 min 2 min 27 W/m 32,2 km/h (5 Bft) 100,00 %
30.12.2022 14:32 8,4 C 6,7 C 3,3 C 89 % 1002,9 hPa 0,2 l/m 0 min 2 min 30 W/m 35,4 km/h (5 Bft) 95,74 %
30.12.2022 14:34 8,4 C 6,7 C 2,8 C 89 % 1002,8 hPa 0,0 l/m 0 min 2 min 33 W/m 35,4 km/h (5 Bft) 97,83 %
30.12.2022 14:36 8,3 C 6,7 C 3,3 C 90 % 1002,9 hPa 0,2 l/m 0 min 2 min 33 W/m 22,5 km/h (4 Bft) 97,87 %
30.12.2022 14:38 8,3 C 6,7 C 3,3 C 90 % 1002,8 hPa 0,0 l/m 0 min 2 min 40 W/m 32,2 km/h (5 Bft) 97,87 %
30.12.2022 14:40 8,3 C 6,7 C 3,3 C 90 % 1002,7 hPa 0,0 l/m 0 min 2 min 48 W/m 25,7 km/h (4 Bft) 100,00 %
30.12.2022 14:42 8,2 C 6,7 C 3,3 C 90 % 1002,7 hPa 0,0 l/m 0 min 2 min 51 W/m 25,7 km/h (4 Bft) 97,87 %
30.12.2022 14:44 8,2 C 6,7 C 3,3 C 90 % 1002,6 hPa 0,2 l/m 0 min 2 min 45 W/m 29,0 km/h (5 Bft) 89,36 %
30.12.2022 14:46 8,2 C 6,7 C 3,3 C 91 % 1002,4 hPa 0,0 l/m 0 min 2 min 42 W/m 29,0 km/h (5 Bft) 97,83 %
30.12.2022 14:48 8,1 C 6,7 C 3,3 C 91 % 1002,3 hPa 0,0 l/m 0 min 2 min 36 W/m 29,0 km/h (5 Bft) 97,87 %
30.12.2022 14:50 8,1 C 6,7 C 3,3 C 91 % 1002,2 hPa 0,0 l/m 0 min 2 min 41 W/m 22,5 km/h (4 Bft) 97,87 %
30.12.2022 14:52 8,1 C 6,7 C 3,3 C 91 % 1002,1 hPa 0,0 l/m 0 min 2 min 40 W/m 25,7 km/h (4 Bft) 97,87 %
30.12.2022 14:54 8,1 C 6,7 C 3,3 C 91 % 1002,0 hPa 0,0 l/m 0 min 2 min 36 W/m 22,5 km/h (4 Bft) 97,87 %
30.12.2022 14:56 8,1 C 6,7 C 3,3 C 92 % 1001,9 hPa 0,2 l/m 0 min 2 min 32 W/m 35,4 km/h (5 Bft) 97,87 %
30.12.2022 14:58 8,1 C 6,7 C 3,3 C 92 % 1001,9 hPa 0,0 l/m 0 min 0 min 30 W/m 32,2 km/h (5 Bft) 95,74 %
30.12.2022 15:00 8,1 C 6,7 C 3,3 C 92 % 1001,8 hPa 0,0 l/m 0 min 2 min 27 W/m 41,8 km/h (6 Bft) 97,87 %
30.12.2022 15:02 8,1 C 6,7 C 3,3 C 92 % 1001,8 hPa 0,0 l/m 0 min 2 min 25 W/m 41,8 km/h (6 Bft) 97,87 %
30.12.2022 15:04 8,0 C 6,7 C 3,3 C 92 % 1001,7 hPa 0,0 l/m 0 min 2 min 24 W/m 45,1 km/h (6 Bft) 97,67 %
30.12.2022 15:06 8,1 C 6,7 C 3,3 C 92 % 1001,5 hPa 0,0 l/m 0 min 2 min 21 W/m 32,2 km/h (5 Bft) 97,87 %
30.12.2022 15:08 8,0 C 6,7 C 3,3 C 92 % 1001,5 hPa 0,0 l/m 0 min 2 min 22 W/m 19,3 km/h (3 Bft) 97,87 %
30.12.2022 15:10 8,0 C 6,7 C 3,3 C 92 % 1001,5 hPa 0,0 l/m 0 min 0 min 22 W/m 29,0 km/h (5 Bft) 97,87 %
30.12.2022 15:12 8,0 C 6,7 C 3,3 C 92 % 1001,5 hPa 0,0 l/m 0 min 0 min 18 W/m 22,5 km/h (4 Bft) 97,87 %
30.12.2022 15:14 8,0 C 6,7 C 3,3 C 92 % 1001,4 hPa 0,0 l/m 0 min 2 min 18 W/m 22,5 km/h (4 Bft) 100,00 %
30.12.2022 15:16 8,0 C 6,7 C 3,3 C 92 % 1001,4 hPa 0,0 l/m 0 min 2 min 19 W/m 29,0 km/h (5 Bft) 100,00 %
30.12.2022 15:18 8,0 C 6,7 C 3,3 C 93 % 1001,3 hPa 0,0 l/m 0 min 2 min 16 W/m 35,4 km/h (5 Bft) 100,00 %
30.12.2022 15:20 8,0 C 6,7 C 3,3 C 93 % 1001,3 hPa 0,0 l/m 0 min 2 min 16 W/m 29,0 km/h (5 Bft) 100,00 %
30.12.2022 15:22 8,0 C 6,7 C 3,3 C 93 % 1001,3 hPa 0,0 l/m 0 min 2 min 17 W/m 29,0 km/h (5 Bft) 100,00 %
30.12.2022 15:24 8,0 C 6,7 C 3,3 C 93 % 1001,2 hPa 0,2 l/m 0 min 2 min 15 W/m 29,0 km/h (5 Bft) 100,00 %
30.12.2022 15:26 8,0 C 6,7 C 3,3 C 93 % 1001,3 hPa 0,0 l/m 0 min 2 min 14 W/m 19,3 km/h (3 Bft) 44,44 %
30.12.2022 15:28 8,0 C 6,7 C 3,3 C 93 % 1001,0 hPa 0,0 l/m 0 min 2 min 17 W/m 38,6 km/h (5 Bft) 100,00 %
30.12.2022 15:30 7,9 C 6,7 C 3,3 C 93 % 1001,3 hPa 0,0 l/m 0 min 2 min 14 W/m 25,7 km/h (4 Bft) 100,00 %
30.12.2022 15:32 7,9 C 6,7 C 3,3 C 93 % 1001,3 hPa 0,0 l/m 0 min 2 min 16 W/m 25,7 km/h (4 Bft) 100,00 %
30.12.2022 15:34 7,9 C 6,7 C 3,3 C 93 % 1001,3 hPa 0,0 l/m 0 min 2 min 13 W/m 25,7 km/h (4 Bft) 100,00 %
30.12.2022 15:36 7,9 C 6,7 C 3,3 C 93 % 1001,3 hPa 0,2 l/m 0 min 2 min 12 W/m 25,7 km/h (4 Bft) 100,00 %
30.12.2022 15:38 7,9 C 6,7 C 3,3 C 94 % 1001,3 hPa 0,0 l/m 0 min 2 min 11 W/m 22,5 km/h (4 Bft) 100,00 %
30.12.2022 15:40 7,9 C 6,7 C 3,3 C 94 % 1001,3 hPa 0,0 l/m 0 min 2 min 11 W/m 25,7 km/h (4 Bft) 100,00 %
30.12.2022 15:42 7,9 C 6,7 C 3,3 C 94 % 1001,3 hPa 0,0 l/m 0 min 2 min 9 W/m 25,7 km/h (4 Bft) 97,87 %
30.12.2022 15:44 7,9 C 6,7 C 3,3 C 94 % 1001,2 hPa 0,2 l/m 0 min 0 min 8 W/m 25,7 km/h (4 Bft) 97,87 %
30.12.2022 15:46 7,9 C 6,7 C 3,3 C 94 % 1001,2 hPa 0,0 l/m 0 min 0 min 8 W/m 25,7 km/h (4 Bft) 100,00 %
30.12.2022 15:48 7,9 C 6,7 C 3,3 C 94 % 1001,3 hPa 0,0 l/m 0 min 0 min 9 W/m 32,2 km/h (5 Bft) 100,00 %
30.12.2022 15:50 7,9 C 6,7 C 3,3 C 94 % 1001,4 hPa 0,0 l/m 0 min 0 min 7 W/m 25,7 km/h (4 Bft) 100,00 %
30.12.2022 15:52 7,8 C 6,7 C 3,3 C 95 % 1001,4 hPa 0,2 l/m 0 min 0 min 5 W/m 29,0 km/h (5 Bft) 97,83 %
30.12.2022 15:54 7,8 C 6,7 C 3,3 C 94 % 1001,4 hPa 0,0 l/m 0 min 0 min 7 W/m 25,7 km/h (4 Bft) 100,00 %
30.12.2022 15:56 7,8 C 6,7 C 3,3 C 95 % 1001,4 hPa 0,0 l/m 0 min 0 min 7 W/m 25,7 km/h (4 Bft) 100,00 %
30.12.2022 15:58 7,8 C 6,7 C 3,3 C 95 % 1001,5 hPa 0,0 l/m 0 min 0 min 6 W/m 35,4 km/h (5 Bft) 97,14 %
30.12.2022 16:00 7,8 C 6,7 C 3,3 C 95 % 1001,3 hPa 0,0 l/m 0 min 0 min 4 W/m 41,8 km/h (6 Bft) 97,87 %
30.12.2022 16:02 7,8 C 6,7 C 3,3 C 95 % 1001,3 hPa 0,0 l/m 0 min 0 min 0 W/m 19,3 km/h (3 Bft) 96,61 %
30.12.2022 16:04 7,8 C 6,7 C 3,3 C 95 % 1001,3 hPa 0,0 l/m 0 min 0 min 0 W/m 19,3 km/h (3 Bft) 97,14 %
30.12.2022 16:06 7,8 C 6,7 C 3,3 C 95 % 1001,4 hPa 0,0 l/m 0 min 0 min 0 W/m 22,5 km/h (4 Bft) 98,28 %
30.12.2022 16:08 7,8 C 6,7 C 3,3 C 95 % 1001,4 hPa 0,2 l/m 0 min 0 min 0 W/m 25,7 km/h (4 Bft) 97,87 %
30.12.2022 16:14 7,8 C 6,7 C 3,3 C 95 % 1001,3 hPa 0,0 l/m 0 min 0 min 0 W/m 32,2 km/h (5 Bft) 100,00 %
30.12.2022 16:16 7,8 C 6,7 C 3,9 C 96 % 1001,2 hPa 0,0 l/m 0 min 0 min 0 W/m 25,7 km/h (4 Bft) 100,00 %
30.12.2022 16:18 7,8 C 6,7 C 3,9 C 96 % 1001,3 hPa 0,0 l/m 0 min 0 min 0 W/m 29,0 km/h (5 Bft) 97,87 %
30.12.2022 16:20 7,8 C 6,7 C 3,9 C 96 % 1001,4 hPa 0,0 l/m 0 min 0 min 0 W/m 25,7 km/h (4 Bft) 97,87 %
30.12.2022 16:22 7,8 C 6,7 C 3,9 C 96 % 1001,4 hPa 0,0 l/m 0 min 0 min 0 W/m 38,6 km/h (5 Bft) 97,87 %
30.12.2022 16:24 7,8 C 6,7 C 3,9 C 96 % 1001,4 hPa 0,0 l/m 0 min 0 min 0 W/m 22,5 km/h (4 Bft) 97,92 %
30.12.2022 16:26 7,8 C 6,7 C 3,9 C 96 % 1001,3 hPa 0,2 l/m 0 min 0 min 0 W/m 22,5 km/h (4 Bft) 93,48 %
30.12.2022 16:28 7,8 C 6,7 C 3,9 C 96 % 1001,3 hPa 0,0 l/m 0 min 0 min 0 W/m 25,7 km/h (4 Bft) 97,87 %
30.12.2022 16:30 7,9 C 6,7 C 3,9 C 96 % 1001,3 hPa 0,0 l/m 0 min 0 min 0 W/m 22,5 km/h (4 Bft) 95,74 %
30.12.2022 16:32 7,9 C 6,7 C 3,9 C 96 % 1001,4 hPa 0,0 l/m 0 min 0 min 0 W/m 22,5 km/h (4 Bft) 95,74 %
30.12.2022 16:34 7,9 C 6,7 C 3,9 C 96 % 1001,4 hPa 0,0 l/m 0 min 0 min 0 W/m 19,3 km/h (3 Bft) 95,74 %
30.12.2022 16:36 7,9 C 6,7 C 3,9 C 96 % 1001,5 hPa 0,0 l/m 0 min 0 min 0 W/m 19,3 km/h (3 Bft) 93,62 %
30.12.2022 16:38 7,9 C 7,2 C 3,9 C 96 % 1001,4 hPa 0,0 l/m 0 min 0 min 0 W/m 29,0 km/h (5 Bft) 89,13 %
30.12.2022 16:40 8,0 C 7,2 C 3,9 C 96 % 1001,4 hPa 0,2 l/m 0 min 0 min 0 W/m 25,7 km/h (4 Bft) 93,62 %
30.12.2022 16:42 8,1 C 7,2 C 3,9 C 96 % 1001,4 hPa 0,0 l/m 0 min 0 min 0 W/m 22,5 km/h (4 Bft) 93,62 %
30.12.2022 16:44 8,1 C 7,2 C 4,4 C 96 % 1001,4 hPa 0,0 l/m 0 min 0 min 0 W/m 32,2 km/h (5 Bft) 93,62 %
30.12.2022 16:46 8,1 C 7,2 C 4,4 C 96 % 1001,4 hPa 0,0 l/m 0 min 0 min 0 W/m 19,3 km/h (3 Bft) 95,74 %
30.12.2022 16:48 8,1 C 7,2 C 4,4 C 96 % 1001,4 hPa 0,0 l/m 0 min 0 min 0 W/m 16,1 km/h (3 Bft) 95,74 %
30.12.2022 16:50 8,2 C 7,2 C 4,4 C 97 % 1001,5 hPa 0,0 l/m 0 min 0 min 0 W/m 12,9 km/h (3 Bft) 93,62 %
30.12.2022 16:52 8,2 C 7,2 C 4,4 C 97 % 1001,6 hPa 0,2 l/m 0 min 0 min 0 W/m 22,5 km/h (4 Bft) 95,65 %
30.12.2022 16:54 8,3 C 7,2 C 4,4 C 97 % 1001,5 hPa 0,0 l/m 0 min 0 min 0 W/m 22,5 km/h (4 Bft) 97,87 %
30.12.2022 16:56 8,3 C 7,2 C 4,4 C 97 % 1001,5 hPa 0,0 l/m 0 min 0 min 0 W/m 16,1 km/h (3 Bft) 91,49 %
30.12.2022 16:58 8,3 C 7,2 C 4,4 C 97 % 1001,5 hPa 0,0 l/m 0 min 0 min 0 W/m 16,1 km/h (3 Bft) 95,74 %
30.12.2022 17:00 8,3 C 7,2 C 4,4 C 97 % 1001,6 hPa 0,0 l/m 0 min 0 min 0 W/m 22,5 km/h (4 Bft) 95,74 %
30.12.2022 17:02 8,4 C 7,2 C 4,4 C 97 % 1001,5 hPa 0,0 l/m 0 min 0 min 0 W/m 12,9 km/h (3 Bft) 93,62 %
30.12.2022 17:04 8,4 C 7,8 C 4,4 C 97 % 1001,5 hPa 0,0 l/m 0 min 0 min 0 W/m 22,5 km/h (4 Bft) 95,65 %
30.12.2022 17:06 8,4 C 7,8 C 4,4 C 97 % 1001,5 hPa 0,0 l/m 0 min 0 min 0 W/m 16,1 km/h (3 Bft) 95,74 %
30.12.2022 17:08 8,5 C 7,8 C 4,4 C 97 % 1001,6 hPa 0,0 l/m 0 min 0 min 0 W/m 19,3 km/h (3 Bft) 95,74 %
30.12.2022 17:10 8,5 C 7,8 C 4,4 C 97 % 1001,6 hPa 0,2 l/m 0 min 0 min 0 W/m 16,1 km/h (3 Bft) 95,74 %
30.12.2022 17:12 8,6 C 7,8 C 4,4 C 97 % 1001,5 hPa 0,0 l/m 0 min 0 min 0 W/m 19,3 km/h (3 Bft) 93,62 %
30.12.2022 17:14 8,6 C 7,8 C 4,4 C 97 % 1001,6 hPa 0,0 l/m 0 min 0 min 0 W/m 19,3 km/h (3 Bft) 95,74 %
30.12.2022 17:16 8,6 C 7,8 C 5,0 C 97 % 1001,6 hPa 0,0 l/m 0 min 0 min 0 W/m 16,1 km/h (3 Bft) 95,74 %
30.12.2022 17:18 8,6 C 7,8 C 5,0 C 97 % 1001,5 hPa 0,0 l/m 0 min 0 min 0 W/m 22,5 km/h (4 Bft) 97,83 %
30.12.2022 17:20 8,6 C 7,8 C 5,0 C 97 % 1001,5 hPa 0,0 l/m 0 min 0 min 0 W/m 22,5 km/h (4 Bft) 93,62 %
30.12.2022 17:22 8,7 C 7,8 C 5,0 C 97 % 1001,6 hPa 0,0 l/m 0 min 0 min 0 W/m 12,9 km/h (3 Bft) 95,74 %
30.12.2022 17:24 8,7 C 7,8 C 5,0 C 97 % 1001,5 hPa 0,0 l/m 0 min 0 min 0 W/m 19,3 km/h (3 Bft) 97,87 %
30.12.2022 17:26 8,7 C 7,8 C 5,0 C 97 % 1001,5 hPa 0,2 l/m 0 min 0 min 0 W/m 22,5 km/h (4 Bft) 100,00 %
30.12.2022 17:28 8,7 C 7,8 C 5,0 C 97 % 1001,6 hPa 0,0 l/m 0 min 0 min 0 W/m 16,1 km/h (3 Bft) 100,00 %
30.12.2022 17:30 8,8 C 7,8 C 5,0 C 97 % 1001,6 hPa 0,0 l/m 0 min 0 min 0 W/m 16,1 km/h (3 Bft) 97,83 %
30.12.2022 17:32 8,8 C 7,8 C 5,0 C 97 % 1001,5 hPa 0,0 l/m 0 min 0 min 0 W/m 12,9 km/h (3 Bft) 100,00 %
30.12.2022 17:34 8,8 C 7,8 C 5,0 C 97 % 1001,6 hPa 0,0 l/m 0 min 0 min 0 W/m 19,3 km/h (3 Bft) 97,87 %
30.12.2022 17:36 8,8 C 7,8 C 5,0 C 97 % 1001,5 hPa 0,0 l/m 0 min 0 min 0 W/m 16,1 km/h (3 Bft) 100,00 %
30.12.2022 17:38 8,8 C 7,8 C 5,0 C 97 % 1001,4 hPa 0,0 l/m 0 min 0 min 0 W/m 19,3 km/h (3 Bft) 100,00 %
30.12.2022 17:40 8,9 C 7,8 C 5,0 C 97 % 1001,4 hPa 0,0 l/m 0 min 0 min 0 W/m 19,3 km/h (3 Bft) 100,00 %
30.12.2022 17:42 8,9 C 8,3 C 5,0 C 98 % 1001,4 hPa 0,0 l/m 0 min 0 min 0 W/m 16,1 km/h (3 Bft) 97,87 %
30.12.2022 17:44 9,0 C 8,3 C 5,0 C 98 % 1001,4 hPa 0,0 l/m 0 min 0 min 0 W/m 16,1 km/h (3 Bft) 100,00 %
30.12.2022 17:46 9,0 C 8,3 C 5,0 C 98 % 1001,4 hPa 0,0 l/m 0 min 0 min 0 W/m 19,3 km/h (3 Bft) 100,00 %
30.12.2022 17:48 9,1 C 8,3 C 5,6 C 98 % 1001,4 hPa 0,0 l/m 0 min 0 min 0 W/m 22,5 km/h (4 Bft) 100,00 %
30.12.2022 17:50 9,2 C 8,3 C 5,6 C 98 % 1001,2 hPa 0,0 l/m 0 min 0 min 0 W/m 19,3 km/h (3 Bft) 100,00 %
30.12.2022 17:52 9,3 C 8,9 C 5,6 C 98 % 1001,3 hPa 0,0 l/m 0 min 0 min 0 W/m 41,8 km/h (6 Bft) 100,00 %
30.12.2022 17:54 9,3 C 8,9 C 5,6 C 98 % 1001,3 hPa 0,0 l/m 0 min 0 min 0 W/m 12,9 km/h (3 Bft) 100,00 %
30.12.2022 17:56 9,4 C 8,9 C 5,6 C 98 % 1001,4 hPa 0,0 l/m 0 min 0 min 0 W/m 16,1 km/h (3 Bft) 100,00 %
30.12.2022 17:58 9,5 C 8,9 C 5,6 C 98 % 1001,6 hPa 0,0 l/m 0 min 0 min 0 W/m 19,3 km/h (3 Bft) 100,00 %
30.12.2022 18:00 9,6 C 8,9 C 5,6 C 98 % 1001,5 hPa 0,0 l/m 0 min 0 min 0 W/m 16,1 km/h (3 Bft) 100,00 %
30.12.2022 18:02 9,6 C 8,9 C 5,6 C 98 % 1001,4 hPa 0,0 l/m 0 min 0 min 0 W/m 12,9 km/h (3 Bft) 100,00 %
30.12.2022 18:04 9,6 C 8,9 C 5,6 C 98 % 1001,6 hPa 0,0 l/m 0 min 0 min 0 W/m 16,1 km/h (3 Bft) 100,00 %
30.12.2022 18:08 9,7 C 8,9 C 5,6 C 98 % 1001,7 hPa 0,0 l/m 0 min 0 min 0 W/m 19,3 km/h (3 Bft) 100,00 %
30.12.2022 18:10 9,7 C 8,9 C 5,6 C 98 % 1001,7 hPa 0,0 l/m 0 min 0 min 0 W/m 16,1 km/h (3 Bft) 97,87 %
30.12.2022 18:12 9,8 C 8,9 C 5,6 C 98 % 1001,7 hPa 0,0 l/m 0 min 0 min 0 W/m 12,9 km/h (3 Bft) 100,00 %
30.12.2022 18:14 9,8 C 8,9 C 5,6 C 98 % 1001,6 hPa 0,0 l/m 0 min 0 min 0 W/m 12,9 km/h (3 Bft) 100,00 %
30.12.2022 18:16 9,8 C 9,4 C 5,6 C 98 % 1001,6 hPa 0,0 l/m 0 min 0 min 0 W/m 22,5 km/h (4 Bft) 100,00 %
30.12.2022 18:18 9,9 C 9,4 C 6,1 C 98 % 1001,7 hPa 0,0 l/m 0 min 0 min 0 W/m 19,3 km/h (3 Bft) 100,00 %
30.12.2022 18:20 9,9 C 9,4 C 6,1 C 98 % 1001,7 hPa 0,0 l/m 0 min 0 min 0 W/m 12,9 km/h (3 Bft) 95,74 %
30.12.2022 18:22 9,9 C 9,4 C 6,1 C 98 % 1001,7 hPa 0,0 l/m 0 min 0 min 0 W/m 16,1 km/h (3 Bft) 100,00 %
30.12.2022 18:24 10,0 C 9,4 C 6,1 C 98 % 1001,7 hPa 0,0 l/m 0 min 0 min 0 W/m 19,3 km/h (3 Bft) 100,00 %
30.12.2022 18:26 10,1 C 9,4 C 6,1 C 98 % 1001,7 hPa 0,0 l/m 0 min 0 min 0 W/m 12,9 km/h (3 Bft) 100,00 %
30.12.2022 18:28 10,1 C 9,4 C 6,1 C 98 % 1001,8 hPa 0,0 l/m 0 min 0 min 0 W/m 12,9 km/h (3 Bft) 97,87 %
30.12.2022 18:30 10,1 C 9,4 C 6,1 C 98 % 1001,8 hPa 0,0 l/m 0 min 0 min 0 W/m 16,1 km/h (3 Bft) 97,87 %
30.12.2022 18:32 10,1 C 9,4 C 6,1 C 98 % 1001,9 hPa 0,0 l/m 0 min 0 min 0 W/m 16,1 km/h (3 Bft) 97,87 %
30.12.2022 18:34 10,2 C 9,4 C 6,1 C 98 % 1001,8 hPa 0,0 l/m 0 min 0 min 0 W/m 16,1 km/h (3 Bft) 95,74 %
30.12.2022 18:36 10,2 C 9,4 C 6,1 C 98 % 1001,9 hPa 0,0 l/m 0 min 0 min 0 W/m 32,2 km/h (5 Bft) 95,74 %
30.12.2022 18:38 10,4 C 10,0 C 6,7 C 98 % 1001,8 hPa 0,0 l/m 0 min 0 min 0 W/m 29,0 km/h (5 Bft) 95,65 %
30.12.2022 18:40 10,5 C 10,0 C 6,7 C 98 % 1001,9 hPa 0,0 l/m 0 min 0 min 0 W/m 29,0 km/h (5 Bft) 95,74 %
30.12.2022 18:42 10,6 C 10,0 C 6,7 C 98 % 1001,9 hPa 0,0 l/m 0 min 0 min 0 W/m 25,7 km/h (4 Bft) 93,62 %
30.12.2022 18:44 10,7 C 10,0 C 6,7 C 98 % 1001,9 hPa 0,0 l/m 0 min 0 min 0 W/m 19,3 km/h (3 Bft) 95,74 %
30.12.2022 18:46 10,8 C 10,0 C 6,7 C 98 % 1001,9 hPa 0,0 l/m 0 min 0 min 0 W/m 25,7 km/h (4 Bft) 95,74 %
30.12.2022 18:48 10,9 C 10,0 C 6,7 C 98 % 1001,9 hPa 0,0 l/m 0 min 0 min 0 W/m 25,7 km/h (4 Bft) 91,49 %
30.12.2022 18:50 11,0 C 10,0 C 6,7 C 98 % 1002,0 hPa 0,0 l/m 0 min 0 min 0 W/m 29,0 km/h (5 Bft) 95,74 %
30.12.2022 18:52 11,1 C 10,6 C 6,7 C 98 % 1002,0 hPa 0,0 l/m 0 min 0 min 0 W/m 22,5 km/h (4 Bft) 95,65 %
30.12.2022 18:54 11,2 C 10,6 C 6,7 C 98 % 1002,1 hPa 0,0 l/m 0 min 0 min 0 W/m 29,0 km/h (5 Bft) 95,74 %
30.12.2022 18:56 11,3 C 10,6 C 6,7 C 97 % 1002,1 hPa 0,0 l/m 0 min 0 min 0 W/m 25,7 km/h (4 Bft) 93,62 %
30.12.2022 18:58 11,3 C 10,6 C 6,7 C 97 % 1002,1 hPa 0,0 l/m 0 min 0 min 0 W/m 25,7 km/h (4 Bft) 95,74 %
30.12.2022 19:00 11,4 C 10,6 C 7,2 C 97 % 1002,1 hPa 0,0 l/m 0 min 0 min 0 W/m 35,4 km/h (5 Bft) 93,62 %
30.12.2022 19:02 11,4 C 10,6 C 7,2 C 97 % 1002,1 hPa 0,0 l/m 0 min 0 min 0 W/m 32,2 km/h (5 Bft) 95,74 %
30.12.2022 19:04 11,6 C 10,6 C 7,2 C 97 % 1002,2 hPa 0,0 l/m 0 min 2 min 0 W/m 38,6 km/h (5 Bft) 95,65 %
30.12.2022 19:06 11,7 C 11,1 C 7,2 C 97 % 1002,2 hPa 0,0 l/m 0 min 2 min 0 W/m 25,7 km/h (4 Bft) 97,87 %
30.12.2022 19:08 11,7 C 11,1 C 7,2 C 96 % 1002,2 hPa 0,0 l/m 0 min 2 min 0 W/m 38,6 km/h (5 Bft) 100,00 %
30.12.2022 19:10 11,7 C 11,1 C 7,2 C 96 % 1002,3 hPa 0,0 l/m 0 min 2 min 0 W/m 25,7 km/h (4 Bft) 97,87 %
30.12.2022 19:12 11,8 C 11,1 C 7,2 C 96 % 1002,3 hPa 0,0 l/m 0 min 2 min 0 W/m 29,0 km/h (5 Bft) 97,87 %
30.12.2022 19:14 11,8 C 11,1 C 7,2 C 96 % 1002,4 hPa 0,0 l/m 0 min 2 min 0 W/m 29,0 km/h (5 Bft) 97,87 %
30.12.2022 19:16 11,9 C 11,1 C 7,2 C 96 % 1002,3 hPa 0,0 l/m 0 min 2 min 0 W/m 29,0 km/h (5 Bft) 100,00 %
30.12.2022 19:18 11,9 C 11,1 C 7,2 C 96 % 1002,4 hPa 0,0 l/m 0 min 2 min 0 W/m 25,7 km/h (4 Bft) 97,87 %
30.12.2022 19:20 12,0 C 11,1 C 7,2 C 95 % 1002,4 hPa 0,0 l/m 0 min 2 min 0 W/m 25,7 km/h (4 Bft) 100,00 %
30.12.2022 19:22 12,1 C 11,7 C 7,2 C 95 % 1002,4 hPa 0,0 l/m 0 min 2 min 0 W/m 29,0 km/h (5 Bft) 100,00 %
30.12.2022 19:24 12,1 C 11,7 C 7,2 C 95 % 1002,3 hPa 0,0 l/m 0 min 2 min 0 W/m 64,4 km/h (8 Bft) 95,74 %
30.12.2022 19:26 12,2 C 11,7 C 7,2 C 95 % 1002,3 hPa 0,0 l/m 0 min 0 min 0 W/m 29,0 km/h (5 Bft) 100,00 %
30.12.2022 19:28 12,2 C 11,7 C 7,2 C 95 % 1002,2 hPa 0,0 l/m 0 min 0 min 0 W/m 32,2 km/h (5 Bft) 100,00 %
30.12.2022 19:30 12,3 C 11,7 C 7,2 C 94 % 1002,3 hPa 0,0 l/m 0 min 2 min 0 W/m 45,1 km/h (6 Bft) 100,00 %
30.12.2022 19:32 12,3 C 11,7 C 7,2 C 94 % 1002,3 hPa 0,0 l/m 0 min 0 min 0 W/m 38,6 km/h (5 Bft) 97,87 %
30.12.2022 19:34 12,4 C 11,7 C 7,2 C 94 % 1002,5 hPa 0,0 l/m 0 min 0 min 0 W/m 25,7 km/h (4 Bft) 97,87 %
30.12.2022 19:36 12,4 C 11,7 C 7,8 C 94 % 1002,5 hPa 0,0 l/m 0 min 0 min 0 W/m 54,7 km/h (7 Bft) 95,74 %
30.12.2022 19:38 12,4 C 11,7 C 7,8 C 94 % 1002,6 hPa 0,0 l/m 0 min 0 min 0 W/m 29,0 km/h (5 Bft) 93,62 %
30.12.2022 19:40 12,5 C 11,7 C 7,8 C 94 % 1002,6 hPa 0,0 l/m 0 min 0 min 0 W/m 45,1 km/h (6 Bft) 97,87 %
30.12.2022 19:42 12,6 C 11,7 C 7,8 C 93 % 1002,7 hPa 0,0 l/m 0 min 0 min 0 W/m 29,0 km/h (5 Bft) 97,83 %
30.12.2022 19:44 12,6 C 11,7 C 7,8 C 93 % 1002,8 hPa 0,0 l/m 0 min 0 min 0 W/m 29,0 km/h (5 Bft) 97,87 %
30.12.2022 19:46 12,6 C 11,7 C 7,8 C 93 % 1002,8 hPa 0,0 l/m 0 min 0 min 0 W/m 25,7 km/h (4 Bft) 97,87 %
30.12.2022 19:48 12,6 C 11,7 C 7,8 C 93 % 1002,7 hPa 0,0 l/m 0 min 0 min 0 W/m 35,4 km/h (5 Bft) 97,87 %
30.12.2022 19:50 12,5 C 11,7 C 7,8 C 93 % 1002,7 hPa 0,0 l/m 0 min 0 min 0 W/m 16,1 km/h (3 Bft) 97,87 %
30.12.2022 19:52 12,5 C 11,7 C 7,8 C 93 % 1002,8 hPa 0,0 l/m 0 min 0 min 0 W/m 19,3 km/h (3 Bft) 93,62 %
30.12.2022 19:54 12,5 C 11,7 C 7,8 C 93 % 1002,8 hPa 0,0 l/m 0 min 0 min 0 W/m 25,7 km/h (4 Bft) 97,83 %
30.12.2022 19:56 12,5 C 11,7 C 7,2 C 93 % 1002,8 hPa 0,0 l/m 0 min 0 min 0 W/m 22,5 km/h (4 Bft) 97,87 %
30.12.2022 19:58 12,5 C 11,7 C 7,8 C 93 % 1002,9 hPa 0,0 l/m 0 min 0 min 0 W/m 35,4 km/h (5 Bft) 95,74 %
30.12.2022 20:00 12,6 C 11,7 C 7,8 C 93 % 1002,8 hPa 0,0 l/m 0 min 0 min 0 W/m 22,5 km/h (4 Bft) 97,87 %
30.12.2022 20:02 12,6 C 11,7 C 7,8 C 93 % 1002,9 hPa 0,0 l/m 0 min 0 min 0 W/m 35,4 km/h (5 Bft) 95,74 %
30.12.2022 20:04 12,6 C 11,7 C 7,8 C 93 % 1002,9 hPa 0,0 l/m 0 min 0 min 0 W/m 22,5 km/h (4 Bft) 97,87 %
30.12.2022 20:06 12,6 C 12,2 C 7,8 C 93 % 1003,0 hPa 0,0 l/m 0 min 0 min 0 W/m 29,0 km/h (5 Bft) 97,87 %
30.12.2022 20:08 12,7 C 12,2 C 7,8 C 93 % 1002,9 hPa 0,0 l/m 0 min 0 min 0 W/m 29,0 km/h (5 Bft) 97,83 %
30.12.2022 20:10 12,7 C 12,2 C 7,8 C 93 % 1003,0 hPa 0,0 l/m 0 min 0 min 0 W/m 25,7 km/h (4 Bft) 95,74 %
30.12.2022 20:12 12,8 C 12,2 C 7,8 C 93 % 1002,9 hPa 0,0 l/m 0 min 0 min 0 W/m 41,8 km/h (6 Bft) 97,87 %
30.12.2022 20:14 12,8 C 12,2 C 7,8 C 92 % 1003,0 hPa 0,0 l/m 0 min 0 min 0 W/m 22,5 km/h (4 Bft) 97,87 %
30.12.2022 20:16 12,8 C 12,2 C 7,8 C 92 % 1002,9 hPa 0,0 l/m 0 min 0 min 0 W/m 29,0 km/h (5 Bft) 97,87 %
30.12.2022 20:18 12,8 C 12,2 C 7,8 C 92 % 1003,0 hPa 0,0 l/m 0 min 0 min 0 W/m 32,2 km/h (5 Bft) 95,74 %
30.12.2022 20:20 12,9 C 12,2 C 7,8 C 92 % 1003,1 hPa 0,0 l/m 0 min 0 min 0 W/m 25,7 km/h (4 Bft) 97,83 %
30.12.2022 20:22 12,9 C 12,2 C 7,8 C 92 % 1003,2 hPa 0,0 l/m 0 min 0 min 0 W/m 48,3 km/h (6 Bft) 97,87 %
30.12.2022 20:24 12,9 C 12,2 C 7,8 C 92 % 1003,3 hPa 0,0 l/m 0 min 0 min 0 W/m 32,2 km/h (5 Bft) 100,00 %
30.12.2022 20:26 13,0 C 12,2 C 7,8 C 92 % 1003,3 hPa 0,0 l/m 0 min 0 min 0 W/m 29,0 km/h (5 Bft) 97,87 %
30.12.2022 20:28 13,0 C 12,2 C 7,8 C 92 % 1003,3 hPa 0,0 l/m 0 min 0 min 0 W/m 22,5 km/h (4 Bft) 97,87 %
30.12.2022 20:30 13,0 C 12,2 C 7,8 C 92 % 1003,4 hPa 0,0 l/m 0 min 0 min 0 W/m 29,0 km/h (5 Bft) 97,87 %
30.12.2022 20:32 13,0 C 12,2 C 7,8 C 92 % 1003,4 hPa 0,0 l/m 0 min 0 min 0 W/m 32,2 km/h (5 Bft) 97,87 %
30.12.2022 20:34 13,1 C 12,2 C 7,8 C 92 % 1003,4 hPa 0,0 l/m 0 min 0 min 0 W/m 35,4 km/h (5 Bft) 95,65 %
30.12.2022 20:36 13,1 C 12,2 C 7,8 C 92 % 1003,5 hPa 0,0 l/m 0 min 0 min 0 W/m 29,0 km/h (5 Bft) 97,87 %
30.12.2022 20:38 13,1 C 12,2 C 7,8 C 91 % 1003,5 hPa 0,0 l/m 0 min 0 min 0 W/m 32,2 km/h (5 Bft) 97,87 %
30.12.2022 20:40 13,1 C 12,2 C 7,8 C 91 % 1003,6 hPa 0,0 l/m 0 min 0 min 0 W/m 35,4 km/h (5 Bft) 97,87 %
30.12.2022 20:42 13,1 C 12,2 C 7,8 C 91 % 1003,5 hPa 0,0 l/m 0 min 0 min 0 W/m 29,0 km/h (5 Bft) 97,87 %
30.12.2022 20:44 13,1 C 12,2 C 7,8 C 91 % 1003,5 hPa 0,0 l/m 0 min 0 min 0 W/m 35,4 km/h (5 Bft) 97,87 %
30.12.2022 20:46 13,2 C 12,2 C 7,8 C 91 % 1003,6 hPa 0,0 l/m 0 min 0 min 0 W/m 29,0 km/h (5 Bft) 97,83 %
30.12.2022 20:48 13,2 C 12,2 C 7,8 C 91 % 1003,6 hPa 0,0 l/m 0 min 0 min 0 W/m 38,6 km/h (5 Bft) 95,74 %
30.12.2022 20:50 13,2 C 12,2 C 7,8 C 91 % 1003,6 hPa 0,0 l/m 0 min 0 min 0 W/m 35,4 km/h (5 Bft) 97,87 %
30.12.2022 20:52 13,2 C 12,2 C 7,8 C 91 % 1003,5 hPa 0,0 l/m 0 min 0 min 0 W/m 22,5 km/h (4 Bft) 97,87 %
30.12.2022 20:54 13,2 C 12,2 C 7,8 C 91 % 1003,6 hPa 0,0 l/m 0 min 0 min 0 W/m 35,4 km/h (5 Bft) 97,87 %
30.12.2022 20:56 13,2 C 12,2 C 7,8 C 91 % 1003,7 hPa 0,0 l/m 0 min 0 min 0 W/m 22,5 km/h (4 Bft) 95,74 %
30.12.2022 20:58 13,2 C 12,2 C 7,8 C 92 % 1003,7 hPa 0,0 l/m 0 min 0 min 0 W/m 19,3 km/h (3 Bft) 95,65 %
30.12.2022 21:00 13,1 C 12,2 C 7,8 C 92 % 1003,7 hPa 0,0 l/m 0 min 0 min 0 W/m 25,7 km/h (4 Bft) 95,74 %
30.12.2022 21:02 13,1 C 12,2 C 7,8 C 92 % 1003,7 hPa 0,0 l/m 0 min 0 min 0 W/m 25,7 km/h (4 Bft) 93,62 %
30.12.2022 21:04 13,1 C 12,2 C 7,8 C 92 % 1003,7 hPa 0,0 l/m 0 min 0 min 0 W/m 22,5 km/h (4 Bft) 97,87 %
30.12.2022 21:06 13,1 C 12,2 C 8,3 C 92 % 1003,8 hPa 0,0 l/m 0 min 0 min 0 W/m 38,6 km/h (5 Bft) 97,87 %
30.12.2022 21:08 13,2 C 12,2 C 8,3 C 92 % 1003,7 hPa 0,0 l/m 0 min 0 min 0 W/m 29,0 km/h (5 Bft) 98,15 %
30.12.2022 21:10 13,2 C 12,2 C 8,3 C 92 % 1003,8 hPa 0,0 l/m 0 min 0 min 0 W/m 32,2 km/h (5 Bft) 97,87 %
30.12.2022 21:12 13,2 C 12,2 C 8,3 C 92 % 1003,8 hPa 0,0 l/m 0 min 0 min 0 W/m 25,7 km/h (4 Bft) 95,74 %
30.12.2022 21:14 13,2 C 12,2 C 8,3 C 92 % 1003,8 hPa 0,0 l/m 0 min 0 min 0 W/m 32,2 km/h (5 Bft) 97,87 %
30.12.2022 21:16 13,2 C 12,2 C 8,3 C 92 % 1003,8 hPa 0,0 l/m 0 min 0 min 0 W/m 32,2 km/h (5 Bft) 97,83 %
30.12.2022 21:18 13,3 C 12,2 C 8,3 C 92 % 1003,9 hPa 0,0 l/m 0 min 0 min 0 W/m 32,2 km/h (5 Bft) 91,49 %
30.12.2022 21:20 13,2 C 12,2 C 8,3 C 92 % 1004,0 hPa 0,0 l/m 0 min 0 min 0 W/m 32,2 km/h (5 Bft) 95,74 %
30.12.2022 21:22 13,2 C 12,2 C 8,3 C 92 % 1004,0 hPa 0,0 l/m 0 min 0 min 0 W/m 38,6 km/h (5 Bft) 97,87 %
30.12.2022 21:24 13,2 C 12,2 C 8,3 C 92 % 1004,0 hPa 0,0 l/m 0 min 0 min 0 W/m 22,5 km/h (4 Bft) 95,74 %
30.12.2022 21:26 13,2 C 12,2 C 8,3 C 92 % 1004,0 hPa 0,0 l/m 0 min 0 min 0 W/m 25,7 km/h (4 Bft) 97,87 %
30.12.2022 21:28 13,2 C 12,2 C 8,3 C 92 % 1004,0 hPa 0,0 l/m 0 min 0 min 0 W/m 29,0 km/h (5 Bft) 97,83 %
30.12.2022 21:30 13,2 C 12,2 C 8,3 C 92 % 1004,0 hPa 0,0 l/m 0 min 0 min 0 W/m 22,5 km/h (4 Bft) 97,87 %
30.12.2022 21:32 13,2 C 12,2 C 8,9 C 92 % 1004,2 hPa 0,0 l/m 0 min 0 min 0 W/m 29,0 km/h (5 Bft) 97,87 %
30.12.2022 21:34 13,2 C 12,2 C 8,9 C 92 % 1004,2 hPa 0,0 l/m 0 min 0 min 0 W/m 19,3 km/h (3 Bft) 97,87 %
30.12.2022 21:36 13,2 C 12,2 C 8,9 C 93 % 1004,2 hPa 0,0 l/m 0 min 0 min 0 W/m 19,3 km/h (3 Bft) 97,87 %
30.12.2022 21:38 13,2 C 12,2 C 8,9 C 93 % 1004,2 hPa 0,0 l/m 0 min 0 min 0 W/m 22,5 km/h (4 Bft) 97,87 %
30.12.2022 21:40 13,2 C 12,2 C 8,9 C 93 % 1004,0 hPa 0,0 l/m 0 min 0 min 0 W/m 22,5 km/h (4 Bft) 97,83 %
30.12.2022 21:42 13,2 C 12,2 C 8,9 C 93 % 1004,2 hPa 0,0 l/m 0 min 0 min 0 W/m 29,0 km/h (5 Bft) 97,87 %
30.12.2022 21:44 13,2 C 12,2 C 8,9 C 93 % 1004,1 hPa 0,0 l/m 0 min 0 min 0 W/m 22,5 km/h (4 Bft) 93,62 %
30.12.2022 21:46 13,2 C 12,2 C 8,9 C 93 % 1004,2 hPa 0,0 l/m 0 min 0 min 0 W/m 25,7 km/h (4 Bft) 95,74 %
30.12.2022 21:48 13,2 C 12,2 C 8,9 C 93 % 1004,4 hPa 0,0 l/m 0 min 0 min 0 W/m 29,0 km/h (5 Bft) 97,87 %
30.12.2022 21:50 13,2 C 12,2 C 8,9 C 93 % 1004,1 hPa 0,0 l/m 0 min 0 min 0 W/m 29,0 km/h (5 Bft) 100,00 %
30.12.2022 21:52 13,2 C 12,2 C 8,9 C 93 % 1004,3 hPa 0,0 l/m 0 min 0 min 0 W/m 25,7 km/h (4 Bft) 100,00 %
30.12.2022 21:54 13,2 C 12,2 C 8,9 C 93 % 1004,2 hPa 0,0 l/m 0 min 0 min 0 W/m 29,0 km/h (5 Bft) 100,00 %
30.12.2022 21:56 13,2 C 12,2 C 8,9 C 93 % 1004,2 hPa 0,0 l/m 0 min 0 min 0 W/m 22,5 km/h (4 Bft) 100,00 %
30.12.2022 21:58 13,2 C 12,2 C 8,9 C 93 % 1004,2 hPa 0,0 l/m 0 min 0 min 0 W/m 29,0 km/h (5 Bft) 97,87 %
30.12.2022 22:00 13,2 C 12,2 C 8,9 C 93 % 1004,3 hPa 0,0 l/m 0 min 0 min 0 W/m 45,1 km/h (6 Bft) 97,87 %
30.12.2022 22:02 13,2 C 12,2 C 8,9 C 93 % 1004,3 hPa 0,0 l/m 0 min 0 min 0 W/m 29,0 km/h (5 Bft) 100,00 %
30.12.2022 22:04 13,3 C 12,2 C 8,9 C 93 % 1004,3 hPa 0,0 l/m 0 min 0 min 0 W/m 25,7 km/h (4 Bft) 100,00 %
30.12.2022 22:06 13,2 C 12,2 C 8,9 C 93 % 1004,4 hPa 0,0 l/m 0 min 0 min 0 W/m 22,5 km/h (4 Bft) 100,00 %
30.12.2022 22:08 13,2 C 12,2 C 8,9 C 93 % 1004,4 hPa 0,0 l/m 0 min 0 min 0 W/m 29,0 km/h (5 Bft) 100,00 %
30.12.2022 22:10 13,2 C 12,2 C 8,9 C 93 % 1004,3 hPa 0,0 l/m 0 min 0 min 0 W/m 19,3 km/h (3 Bft) 100,00 %
30.12.2022 22:12 13,2 C 12,2 C 8,9 C 93 % 1004,4 hPa 0,0 l/m 0 min 0 min 0 W/m 29,0 km/h (5 Bft) 95,74 %
30.12.2022 22:14 13,2 C 12,2 C 8,9 C 93 % 1004,4 hPa 0,0 l/m 0 min 0 min 0 W/m 16,1 km/h (3 Bft) 100,00 %
30.12.2022 22:16 13,2 C 12,2 C 8,9 C 93 % 1004,4 hPa 0,0 l/m 0 min 0 min 0 W/m 19,3 km/h (3 Bft) 100,00 %
30.12.2022 22:18 13,2 C 12,2 C 8,9 C 93 % 1004,4 hPa 0,0 l/m 0 min 0 min 0 W/m 22,5 km/h (4 Bft) 97,83 %
30.12.2022 22:20 13,2 C 12,2 C 8,9 C 93 % 1004,4 hPa 0,0 l/m 0 min 0 min 0 W/m 25,7 km/h (4 Bft) 95,74 %
30.12.2022 22:22 13,3 C 12,8 C 8,9 C 93 % 1004,4 hPa 0,0 l/m 0 min 0 min 0 W/m 25,7 km/h (4 Bft) 97,87 %
30.12.2022 22:24 13,3 C 12,8 C 8,9 C 93 % 1004,6 hPa 0,0 l/m 0 min 0 min 0 W/m 38,6 km/h (5 Bft) 95,74 %
30.12.2022 22:26 13,3 C 12,2 C 8,9 C 93 % 1004,6 hPa 0,0 l/m 0 min 2 min 0 W/m 22,5 km/h (4 Bft) 95,74 %
30.12.2022 22:28 13,3 C 12,2 C 8,9 C 93 % 1004,5 hPa 0,0 l/m 0 min 2 min 0 W/m 22,5 km/h (4 Bft) 97,87 %
30.12.2022 22:30 13,3 C 12,2 C 8,9 C 93 % 1004,7 hPa 0,0 l/m 0 min 2 min 0 W/m 32,2 km/h (5 Bft) 97,87 %
30.12.2022 22:32 13,3 C 12,2 C 8,9 C 94 % 1004,6 hPa 0,0 l/m 0 min 2 min 0 W/m 22,5 km/h (4 Bft) 91,30 %
30.12.2022 22:34 13,3 C 12,2 C 8,9 C 94 % 1004,5 hPa 0,0 l/m 0 min 2 min 0 W/m 25,7 km/h (4 Bft) 93,62 %
30.12.2022 22:36 13,2 C 12,2 C 8,9 C 94 % 1004,6 hPa 0,0 l/m 0 min 2 min 0 W/m 22,5 km/h (4 Bft) 93,62 %
30.12.2022 22:38 13,2 C 12,2 C 8,9 C 94 % 1004,6 hPa 0,0 l/m 0 min 2 min 0 W/m 22,5 km/h (4 Bft) 95,74 %
30.12.2022 22:40 13,2 C 12,2 C 8,9 C 94 % 1004,6 hPa 0,0 l/m 0 min 2 min 0 W/m 29,0 km/h (5 Bft) 93,62 %
30.12.2022 22:42 13,2 C 12,2 C 8,9 C 94 % 1004,6 hPa 0,0 l/m 0 min 0 min 0 W/m 22,5 km/h (4 Bft) 93,62 %
30.12.2022 22:44 13,1 C 12,2 C 8,9 C 94 % 1004,7 hPa 0,0 l/m 0 min 0 min 0 W/m 12,9 km/h (3 Bft) 95,65 %
30.12.2022 22:46 13,1 C 12,2 C 8,9 C 94 % 1004,7 hPa 0,0 l/m 0 min 0 min 0 W/m 12,9 km/h (3 Bft) 95,74 %
30.12.2022 22:48 13,1 C 12,2 C 8,9 C 94 % 1004,7 hPa 0,0 l/m 0 min 0 min 0 W/m 22,5 km/h (4 Bft) 95,74 %
30.12.2022 22:50 13,1 C 12,2 C 8,9 C 95 % 1004,7 hPa 0,0 l/m 0 min 0 min 0 W/m 19,3 km/h (3 Bft) 95,74 %
30.12.2022 22:52 13,1 C 12,2 C 8,9 C 95 % 1004,8 hPa 0,0 l/m 0 min 0 min 0 W/m 16,1 km/h (3 Bft) 95,74 %
30.12.2022 22:54 13,1 C 12,2 C 8,9 C 95 % 1004,8 hPa 0,0 l/m 0 min 0 min 0 W/m 12,9 km/h (3 Bft) 95,74 %
30.12.2022 22:56 13,1 C 12,2 C 8,9 C 95 % 1004,8 hPa 0,0 l/m 0 min 0 min 0 W/m 22,5 km/h (4 Bft) 93,48 %
30.12.2022 22:58 13,1 C 12,2 C 8,9 C 95 % 1004,8 hPa 0,0 l/m 0 min 0 min 0 W/m 22,5 km/h (4 Bft) 95,74 %
30.12.2022 23:00 13,1 C 12,8 C 8,9 C 95 % 1004,8 hPa 0,0 l/m 0 min 0 min 0 W/m 29,0 km/h (5 Bft) 93,62 %
30.12.2022 23:02 13,1 C 12,8 C 8,9 C 95 % 1004,8 hPa 0,0 l/m 0 min 0 min 0 W/m 29,0 km/h (5 Bft) 95,74 %
30.12.2022 23:04 13,2 C 12,8 C 8,9 C 95 % 1004,8 hPa 0,0 l/m 0 min 0 min 0 W/m 29,0 km/h (5 Bft) 95,74 %
30.12.2022 23:06 13,2 C 12,8 C 8,9 C 95 % 1004,8 hPa 0,0 l/m 0 min 0 min 0 W/m 29,0 km/h (5 Bft) 97,87 %
30.12.2022 23:08 13,3 C 12,8 C 8,9 C 94 % 1004,9 hPa 0,0 l/m 0 min 0 min 0 W/m 25,7 km/h (4 Bft) 100,00 %
30.12.2022 23:10 13,3 C 12,8 C 8,9 C 94 % 1004,9 hPa 0,0 l/m 0 min 0 min 0 W/m 16,1 km/h (3 Bft) 100,00 %
30.12.2022 23:12 13,3 C 12,8 C 8,9 C 94 % 1004,9 hPa 0,0 l/m 0 min 0 min 0 W/m 25,7 km/h (4 Bft) 97,83 %
30.12.2022 23:14 13,3 C 12,8 C 8,9 C 94 % 1005,0 hPa 0,0 l/m 0 min 0 min 0 W/m 22,5 km/h (4 Bft) 100,00 %
30.12.2022 23:16 13,4 C 12,8 C 8,9 C 94 % 1004,9 hPa 0,0 l/m 0 min 0 min 0 W/m 19,3 km/h (3 Bft) 97,87 %
30.12.2022 23:18 13,4 C 12,8 C 8,9 C 94 % 1004,9 hPa 0,0 l/m 0 min 0 min 0 W/m 19,3 km/h (3 Bft) 97,14 %
30.12.2022 23:20 13,4 C 12,8 C 9,4 C 94 % 1005,0 hPa 0,0 l/m 0 min 0 min 0 W/m 22,5 km/h (4 Bft) 98,04 %
30.12.2022 23:22 13,4 C 12,8 C 8,9 C 94 % 1005,0 hPa 0,0 l/m 0 min 2 min 0 W/m 19,3 km/h (3 Bft) 100,00 %
30.12.2022 23:24 13,5 C 12,2 C 8,9 C 93 % 1005,2 hPa 0,0 l/m 0 min 2 min 0 W/m 22,5 km/h (4 Bft) 100,00 %
30.12.2022 23:26 13,5 C 12,2 C 8,9 C 93 % 1005,1 hPa 0,2 l/m 0 min 2 min 0 W/m 25,7 km/h (4 Bft) 100,00 %
30.12.2022 23:28 13,4 C 12,2 C 8,9 C 94 % 1005,0 hPa 0,0 l/m 0 min 2 min 0 W/m 29,0 km/h (5 Bft) 97,87 %
30.12.2022 23:30 13,4 C 11,7 C 8,9 C 94 % 1005,1 hPa 0,0 l/m 0 min 2 min 0 W/m 22,5 km/h (4 Bft) 100,00 %
30.12.2022 23:32 13,4 C 11,7 C 8,9 C 94 % 1005,0 hPa 0,0 l/m 0 min 2 min 0 W/m 22,5 km/h (4 Bft) 100,00 %
30.12.2022 23:34 13,3 C 11,7 C 8,9 C 94 % 1005,1 hPa 0,0 l/m 0 min 0 min 0 W/m 16,1 km/h (3 Bft) 97,96 %
30.12.2022 23:36 13,3 C 11,7 C 8,9 C 94 % 1005,2 hPa 0,0 l/m 0 min 0 min 0 W/m 16,1 km/h (3 Bft) 100,00 %
30.12.2022 23:38 13,3 C 11,7 C 8,9 C 94 % 1005,2 hPa 0,0 l/m 0 min 0 min 0 W/m 29,0 km/h (5 Bft) 100,00 %
30.12.2022 23:40 13,3 C 12,2 C 8,9 C 95 % 1005,2 hPa 0,0 l/m 0 min 0 min 0 W/m 29,0 km/h (5 Bft) 97,87 %
30.12.2022 23:42 13,3 C 12,2 C 8,9 C 95 % 1005,1 hPa 0,0 l/m 0 min 0 min 0 W/m 22,5 km/h (4 Bft) 97,37 %
30.12.2022 23:44 13,2 C 12,2 C 8,9 C 95 % 1005,1 hPa 0,0 l/m 0 min 0 min 0 W/m 19,3 km/h (3 Bft) 98,00 %
30.12.2022 23:46 13,2 C 12,2 C 8,9 C 95 % 1005,2 hPa 0,0 l/m 0 min 0 min 0 W/m 19,3 km/h (3 Bft) 97,87 %
30.12.2022 23:48 13,2 C 12,2 C 8,9 C 95 % 1005,1 hPa 0,0 l/m 0 min 0 min 0 W/m 22,5 km/h (4 Bft) 98,08 %
30.12.2022 23:50 13,2 C 12,2 C 8,9 C 95 % 1005,1 hPa 0,0 l/m 0 min 0 min 0 W/m 22,5 km/h (4 Bft) 94,74 %
30.12.2022 23:52 13,2 C 12,2 C 8,9 C 95 % 1005,1 hPa 0,0 l/m 0 min 0 min 0 W/m 22,5 km/h (4 Bft) 98,00 %
30.12.2022 23:54 13,3 C 12,2 C 8,9 C 95 % 1005,1 hPa 0,0 l/m 0 min 0 min 0 W/m 25,7 km/h (4 Bft) 97,87 %
30.12.2022 23:56 13,3 C 12,8 C 8,9 C 95 % 1005,1 hPa 0,0 l/m 0 min 0 min 0 W/m 22,5 km/h (4 Bft) 97,87 %
30.12.2022 23:58 13,3 C 12,8 C 8,9 C 95 % 1005,1 hPa 0,0 l/m 0 min 0 min 0 W/m 25,7 km/h (4 Bft) 97,83 %
_ Min-Zeit 07:34 06:56 06:54 13:30 15:28 - - - - 03:10 15:26
Minimum _ 4,3 C 3,3 C 0,6 C 83 % 1001,0 hPa - - - - 6,4 km/h (2 Bft) 44,44 %
_ Max-Zeit 23:24 22:22 23:20 17:42 03:34 14:06 10:54 14:00 11:06 19:24 00:02
Maximum _ 13,5 C 12,8 C 9,4 C 98 % 1012,4 hPa 0,2 l/m 2 min 2 min 207 W/m 64,4 km/h
S-SW (8 Bft)
100,00 %
Durchschnitt _ 8,2 C 7,4 C 4,1 C 91 % 1007,2 hPa #3,6 l/m #34 min. #2:30 h 54 W/m 20,9 km/h (4 Bft) 97,19 %
© 2022 W. Hausmann